Time,TemperatureF,DewpointF,PressureIn,WindDirection,WindDirectionDegrees,WindSpeedMPH,WindSpeedGustMPH,Humidity,HourlyPrecipIn,Conditions,Clouds,dailyrainin,SoftwareType,DateUTC
2013-02-20 00:00:00,32.4,19.2,28.73,ENE,68,0.0,0.0,58,0.00,,---,0.00,VWS V14.01,2013-02-20 05:00:00,
2013-02-20 00:01:00,32.4,19.2,28.73,ENE,68,0.0,0.0,58,0.00,,---,0.00,VWS V14.01,2013-02-20 05:01:00,
2013-02-20 00:02:00,32.4,19.2,28.73,ENE,68,0.0,0.0,58,0.00,,---,0.00,VWS V14.01,2013-02-20 05:02:00,
2013-02-20 00:03:00,32.4,19.2,28.73,ENE,68,0.0,0.0,58,0.00,,---,0.00,VWS V14.01,2013-02-20 05:03:00,
2013-02-20 00:04:00,32.4,19.2,28.73,ENE,68,0.0,0.0,58,0.00,,---,0.00,VWS V14.01,2013-02-20 05:04:00,
2013-02-20 00:05:00,32.4,19.2,28.73,ENE,68,0.0,0.0,58,0.00,,---,0.00,VWS V14.01,2013-02-20 05:05:00,
2013-02-20 00:06:00,32.4,19.2,28.73,ENE,68,0.0,0.0,58,0.00,,---,0.00,VWS V14.01,2013-02-20 05:06:00,
2013-02-20 00:07:00,32.4,19.6,28.73,ENE,68,0.0,0.0,59,0.00,,---,0.00,VWS V14.01,2013-02-20 05:07:00,
2013-02-20 00:08:00,32.4,19.6,28.73,ENE,68,0.0,0.0,59,0.00,,---,0.00,VWS V14.01,2013-02-20 05:08:00,
2013-02-20 00:09:00,32.4,19.6,28.73,ENE,68,0.0,0.0,59,0.00,,---,0.00,VWS V14.01,2013-02-20 05:09:00,
2013-02-20 00:10:00,32.4,19.6,28.73,ENE,68,0.0,0.0,59,0.00,,---,0.00,VWS V14.01,2013-02-20 05:10:00,
2013-02-20 00:11:00,32.4,19.6,28.73,ENE,68,0.0,0.0,59,0.00,,---,0.00,VWS V14.01,2013-02-20 05:11:00,
2013-02-20 00:12:00,32.4,19.6,28.73,ENE,68,0.0,0.0,59,0.00,,---,0.00,VWS V14.01,2013-02-20 05:12:00,
2013-02-20 00:13:00,32.4,19.6,28.73,ENE,68,0.0,0.0,59,0.00,,---,0.00,VWS V14.01,2013-02-20 05:13:00,
2013-02-20 00:14:00,32.4,19.6,28.73,ENE,68,0.0,0.0,59,0.00,,---,0.00,VWS V14.01,2013-02-20 05:14:00,
2013-02-20 00:15:00,32.4,19.6,28.73,ENE,68,0.0,0.0,59,0.00,,---,0.00,VWS V14.01,2013-02-20 05:15:00,
2013-02-20 00:16:00,32.4,19.6,28.73,ENE,68,0.0,0.0,59,0.00,,---,0.00,VWS V14.01,2013-02-20 05:16:00,
2013-02-20 00:17:00,32.4,19.6,28.73,ENE,68,0.0,0.0,59,0.00,,---,0.00,VWS V14.01,2013-02-20 05:17:00,
2013-02-20 00:18:00,32.4,19.6,28.73,ENE,68,0.0,0.0,59,0.00,,---,0.00,VWS V14.01,2013-02-20 05:18:00,
2013-02-20 00:19:00,32.4,19.6,28.73,ENE,68,0.0,0.0,59,0.00,,---,0.00,VWS V14.01,2013-02-20 05:19:00,
2013-02-20 00:20:00,32.4,19.6,28.73,ENE,68,0.0,0.0,59,0.00,,---,0.00,VWS V14.01,2013-02-20 05:20:00,
2013-02-20 00:21:00,32.5,19.8,28.73,ENE,68,0.0,0.0,59,0.00,,---,0.00,VWS V14.01,2013-02-20 05:21:00,
2013-02-20 00:22:00,32.5,19.8,28.73,ENE,68,0.0,0.0,59,0.00,,---,0.00,VWS V14.01,2013-02-20 05:22:00,
2013-02-20 00:23:00,32.5,19.8,28.73,ENE,68,0.0,0.0,59,0.00,,---,0.00,VWS V14.01,2013-02-20 05:23:00,
2013-02-20 00:24:00,32.5,19.8,28.73,ENE,68,0.0,0.0,59,0.00,,---,0.00,VWS V14.01,2013-02-20 05:24:00,
2013-02-20 00:25:00,32.4,19.6,28.73,ENE,68,0.0,0.0,59,0.00,,---,0.00,VWS V14.01,2013-02-20 05:25:00,
2013-02-20 00:26:00,32.5,19.8,28.73,ENE,68,0.0,0.0,59,0.00,,---,0.00,VWS V14.01,2013-02-20 05:26:00,
2013-02-20 00:27:00,32.5,19.8,28.73,ENE,68,0.0,0.0,59,0.00,,---,0.00,VWS V14.01,2013-02-20 05:27:00,
2013-02-20 00:28:00,32.5,19.8,28.73,ENE,68,0.0,0.0,59,0.00,,---,0.00,VWS V14.01,2013-02-20 05:28:00,
2013-02-20 00:29:00,32.5,19.8,28.73,ENE,68,0.0,0.0,59,0.00,,---,0.00,VWS V14.01,2013-02-20 05:29:00,
2013-02-20 00:30:00,32.5,19.8,28.73,ENE,68,0.0,0.0,59,0.00,,---,0.00,VWS V14.01,2013-02-20 05:30:00,
2013-02-20 00:31:00,32.5,20.2,28.73,ENE,68,0.0,0.0,60,0.00,,---,0.00,VWS V14.01,2013-02-20 05:31:00,
2013-02-20 00:32:00,32.5,20.2,28.73,ENE,68,0.0,0.0,60,0.00,,---,0.00,VWS V14.01,2013-02-20 05:32:00,
2013-02-20 00:33:00,32.5,20.2,28.73,ENE,68,0.0,0.0,60,0.00,,---,0.00,VWS V14.01,2013-02-20 05:33:00,
2013-02-20 00:34:00,32.5,19.8,28.73,ENE,68,0.0,0.0,59,0.00,,---,0.00,VWS V14.01,2013-02-20 05:34:00,
2013-02-20 00:35:00,32.5,20.2,28.73,ENE,68,0.0,0.0,60,0.00,,---,0.00,VWS V14.01,2013-02-20 05:35:00,
2013-02-20 00:36:00,32.5,20.2,28.73,ENE,68,0.0,0.0,60,0.00,,---,0.00,VWS V14.01,2013-02-20 05:36:00,
2013-02-20 00:37:00,32.5,20.2,28.73,ENE,68,0.0,0.0,60,0.00,,---,0.00,VWS V14.01,2013-02-20 05:37:00,
2013-02-20 00:38:00,32.5,20.2,28.73,ENE,68,0.0,0.0,60,0.00,,---,0.00,VWS V14.01,2013-02-20 05:38:00,
2013-02-20 00:39:00,32.5,20.2,28.73,ENE,68,0.0,0.0,60,0.00,,---,0.00,VWS V14.01,2013-02-20 05:39:00,
2013-02-20 00:40:00,32.5,20.6,28.73,ENE,68,0.0,0.0,61,0.00,,---,0.00,VWS V14.01,2013-02-20 05:40:00,
2013-02-20 00:41:00,32.5,20.6,28.73,ENE,68,0.0,2.5,61,0.00,,---,0.00,VWS V14.01,2013-02-20 05:41:00,
2013-02-20 00:42:00,32.7,20.4,28.73,ENE,68,0.0,0.0,60,0.00,,---,0.00,VWS V14.01,2013-02-20 05:42:00,
2013-02-20 00:43:00,32.7,20.4,28.73,ENE,68,0.0,0.0,60,0.00,,---,0.00,VWS V14.01,2013-02-20 05:43:00,
2013-02-20 00:44:00,32.7,20.4,28.73,ENE,68,0.0,0.0,60,0.00,,---,0.00,VWS V14.01,2013-02-20 05:44:00,
2013-02-20 00:45:00,32.7,20.4,28.73,ENE,68,0.0,0.0,60,0.00,,---,0.00,VWS V14.01,2013-02-20 05:45:00,
2013-02-20 00:46:00,32.7,20.4,28.73,ENE,68,1.3,1.3,60,0.00,,---,0.00,VWS V14.01,2013-02-20 05:46:00,
2013-02-20 00:47:00,32.7,20.4,28.73,ENE,68,1.3,1.3,60,0.00,,---,0.00,VWS V14.01,2013-02-20 05:47:00,
2013-02-20 00:48:00,32.9,20.5,28.73,ENE,68,2.0,2.0,60,0.00,,---,0.00,VWS V14.01,2013-02-20 05:48:00,
2013-02-20 00:49:00,32.7,20.0,28.73,ENE,68,0.0,2.0,59,0.00,,---,0.00,VWS V14.01,2013-02-20 05:49:00,
2013-02-20 00:50:00,32.7,20.0,28.73,NNW,338,2.0,2.0,59,0.00,,---,0.00,VWS V14.01,2013-02-20 05:50:00,
2013-02-20 00:51:00,32.7,20.8,28.73,South,180,0.0,2.0,61,0.00,,---,0.00,VWS V14.01,2013-02-20 05:51:00,
2013-02-20 00:53:00,32.5,20.2,28.73,NW,315,2.7,2.7,60,0.00,,---,0.00,VWS V14.01,2013-02-20 05:53:00,
2013-02-20 00:54:00,32.5,20.2,28.73,SSW,202,2.5,2.7,60,0.00,,---,0.00,VWS V14.01,2013-02-20 05:54:00,
2013-02-20 00:55:00,32.5,20.2,28.73,SSW,202,0.0,2.5,60,0.00,,---,0.00,VWS V14.01,2013-02-20 05:55:00,
2013-02-20 00:56:00,32.5,20.2,28.70,WNW,292,5.4,5.4,60,0.00,,---,0.00,VWS V14.01,2013-02-20 05:56:00,
2013-02-20 00:57:00,32.2,19.9,28.70,WNW,292,1.1,5.4,60,0.00,,---,0.00,VWS V14.01,2013-02-20 05:57:00,
2013-02-20 00:58:00,32.0,20.1,28.70,West,270,1.6,1.6,61,0.00,,---,0.00,VWS V14.01,2013-02-20 05:58:00,
2013-02-20 00:59:00,31.8,19.9,28.70,West,270,1.6,1.6,61,0.00,,---,0.00,VWS V14.01,2013-02-20 05:59:00,
2013-02-20 01:00:00,31.8,19.9,28.70,NW,315,3.6,3.6,61,0.00,,---,0.00,VWS V14.01,2013-02-20 06:00:00,
2013-02-20 01:01:00,31.8,19.9,28.70,WNW,292,6.0,6.0,61,0.00,,---,0.00,VWS V14.01,2013-02-20 06:01:00,
2013-02-20 01:02:00,31.5,19.6,28.70,West,270,2.0,6.0,61,0.00,,---,0.00,VWS V14.01,2013-02-20 06:02:00,
2013-02-20 01:03:00,31.3,19.8,28.70,West,270,2.0,2.0,62,0.00,,---,0.00,VWS V14.01,2013-02-20 06:03:00,
2013-02-20 01:04:00,31.3,19.8,28.70,WNW,292,1.1,2.0,62,0.00,,---,0.00,VWS V14.01,2013-02-20 06:04:00,
2013-02-20 01:05:00,31.1,19.6,28.70,WNW,292,1.1,1.1,62,0.00,,---,0.00,VWS V14.01,2013-02-20 06:05:00,
2013-02-20 01:06:00,31.1,19.6,28.70,NE,45,2.2,2.2,62,0.00,,---,0.00,VWS V14.01,2013-02-20 06:06:00,
2013-02-20 01:07:00,31.1,19.6,28.70,NW,315,3.6,3.6,62,0.00,,---,0.00,VWS V14.01,2013-02-20 06:07:00,
2013-02-20 01:08:00,31.1,19.6,28.70,East,90,2.0,3.6,62,0.00,,---,0.00,VWS V14.01,2013-02-20 06:08:00,
2013-02-20 01:09:00,30.9,19.1,28.70,WNW,292,1.6,2.0,61,0.00,,---,0.00,VWS V14.01,2013-02-20 06:09:00,
2013-02-20 01:10:00,30.9,19.1,28.70,NW,315,0.9,2.5,61,0.00,,---,0.00,VWS V14.01,2013-02-20 06:10:00,
2013-02-20 01:11:00,30.9,19.1,28.70,WNW,292,1.6,1.6,61,0.00,,---,0.00,VWS V14.01,2013-02-20 06:11:00,
2013-02-20 01:12:00,30.7,18.9,28.70,South,180,1.6,1.6,61,0.00,,---,0.00,VWS V14.01,2013-02-20 06:12:00,
2013-02-20 01:13:00,30.7,18.9,28.70,South,180,0.9,1.6,61,0.00,,---,0.00,VWS V14.01,2013-02-20 06:13:00,
2013-02-20 01:14:00,30.6,18.7,28.70,WNW,292,0.0,0.9,61,0.00,,---,0.00,VWS V14.01,2013-02-20 06:14:00,
2013-02-20 01:15:00,30.6,18.7,28.70,WNW,292,0.0,0.0,61,0.00,,---,0.00,VWS V14.01,2013-02-20 06:15:00,
2013-02-20 01:16:00,30.6,18.7,28.70,WNW,292,0.0,0.0,61,0.00,,---,0.00,VWS V14.01,2013-02-20 06:16:00,
2013-02-20 01:17:00,30.6,18.7,28.70,NNW,338,2.7,2.7,61,0.00,,---,0.00,VWS V14.01,2013-02-20 06:17:00,
2013-02-20 01:18:00,30.4,18.6,28.70,NNW,338,0.0,2.7,61,0.00,,---,0.00,VWS V14.01,2013-02-20 06:18:00,
2013-02-20 01:19:00,30.4,18.2,28.70,NNW,338,0.0,0.0,60,0.00,,---,0.00,VWS V14.01,2013-02-20 06:19:00,
2013-02-20 01:20:00,30.4,18.2,28.70,WNW,292,2.0,2.0,60,0.00,,---,0.00,VWS V14.01,2013-02-20 06:20:00,
2013-02-20 01:21:00,30.2,18.4,28.70,NNW,338,3.4,3.4,61,0.00,,---,0.00,VWS V14.01,2013-02-20 06:21:00,
2013-02-20 01:22:00,30.2,18.4,28.70,NNW,338,3.4,3.4,61,0.00,,---,0.00,VWS V14.01,2013-02-20 06:22:00,
2013-02-20 01:23:00,30.2,18.4,28.70,NW,315,4.7,4.7,61,0.00,,---,0.00,VWS V14.01,2013-02-20 06:23:00,
2013-02-20 01:24:00,30.0,18.2,28.70,NW,315,4.7,4.7,61,0.00,,---,0.00,VWS V14.01,2013-02-20 06:24:00,
2013-02-20 01:25:00,30.0,18.2,28.70,WNW,292,7.8,7.8,61,0.00,,---,0.00,VWS V14.01,2013-02-20 06:25:00,
2013-02-20 01:26:00,29.7,18.2,28.73,WSW,248,2.5,2.5,62,0.00,,---,0.00,VWS V14.01,2013-02-20 06:26:00,
2013-02-20 01:27:00,29.7,18.2,28.73,ENE,68,4.5,4.5,62,0.00,,---,0.00,VWS V14.01,2013-02-20 06:27:00,
2013-02-20 01:28:00,29.7,18.2,28.73,WNW,292,2.2,4.5,62,0.00,,---,0.00,VWS V14.01,2013-02-20 06:28:00,
2013-02-20 01:29:00,29.7,18.2,28.73,SSW,202,1.6,2.2,62,0.00,,---,0.00,VWS V14.01,2013-02-20 06:29:00,
2013-02-20 01:30:00,29.7,18.2,28.73,South,180,2.7,2.7,62,0.00,,---,0.00,VWS V14.01,2013-02-20 06:30:00,
2013-02-20 01:31:00,29.7,18.2,28.73,NW,315,2.9,2.9,62,0.00,,---,0.00,VWS V14.01,2013-02-20 06:31:00,
2013-02-20 01:32:00,29.5,18.1,28.73,NNW,338,0.0,2.9,62,0.00,,---,0.00,VWS V14.01,2013-02-20 06:32:00,
2013-02-20 01:33:00,29.5,18.1,28.73,NW,315,2.7,2.7,62,0.00,,---,0.00,VWS V14.01,2013-02-20 06:33:00,
2013-02-20 01:34:00,29.5,18.1,28.73,NW,315,0.0,2.7,62,0.00,,---,0.00,VWS V14.01,2013-02-20 06:34:00,
2013-02-20 01:35:00,29.5,17.7,28.73,NW,315,0.0,0.0,61,0.00,,---,0.00,VWS V14.01,2013-02-20 06:35:00,
2013-02-20 01:36:00,29.5,17.7,28.73,NW,315,0.0,0.0,61,0.00,,---,0.00,VWS V14.01,2013-02-20 06:36:00,
2013-02-20 01:37:00,29.5,17.7,28.73,NW,315,1.3,1.3,61,0.00,,---,0.00,VWS V14.01,2013-02-20 06:37:00,
2013-02-20 01:38:00,29.5,17.7,28.73,NW,315,0.0,1.3,61,0.00,,---,0.00,VWS V14.01,2013-02-20 06:38:00,
2013-02-20 01:39:00,29.5,17.7,28.73,NW,315,0.0,0.0,61,0.00,,---,0.00,VWS V14.01,2013-02-20 06:39:00,
2013-02-20 01:40:00,29.5,17.7,28.73,NW,315,0.0,0.0,61,0.00,,---,0.00,VWS V14.01,2013-02-20 06:40:00,
2013-02-20 01:41:00,29.5,17.7,28.70,NW,315,0.0,0.0,61,0.00,,---,0.00,VWS V14.01,2013-02-20 06:41:00,
2013-02-20 01:42:00,29.5,17.7,28.70,NW,315,0.0,0.0,61,0.00,,---,0.00,VWS V14.01,2013-02-20 06:42:00,
2013-02-20 01:43:00,29.5,17.7,28.70,WNW,292,1.3,1.3,61,0.00,,---,0.00,VWS V14.01,2013-02-20 06:43:00,
2013-02-20 01:44:00,29.5,17.7,28.70,WNW,292,1.3,1.3,61,0.00,,---,0.00,VWS V14.01,2013-02-20 06:44:00,
2013-02-20 01:45:00,29.5,17.7,28.70,WNW,292,1.6,1.6,61,0.00,,---,0.00,VWS V14.01,2013-02-20 06:45:00,
2013-02-20 01:46:00,29.5,17.7,28.70,SE,135,0.0,1.1,61,0.00,,---,0.00,VWS V14.01,2013-02-20 06:46:00,
2013-02-20 01:47:00,29.5,17.7,28.70,NNE,22,1.6,1.6,61,0.00,,---,0.00,VWS V14.01,2013-02-20 06:47:00,
2013-02-20 01:48:00,29.5,17.7,28.70,NW,315,2.0,2.7,61,0.00,,---,0.00,VWS V14.01,2013-02-20 06:48:00,
2013-02-20 01:49:00,29.5,18.1,28.70,NW,315,2.0,2.0,62,0.00,,---,0.00,VWS V14.01,2013-02-20 06:49:00,
2013-02-20 01:50:00,29.5,18.1,28.70,ESE,112,1.6,2.0,62,0.00,,---,0.00,VWS V14.01,2013-02-20 06:50:00,
2013-02-20 01:51:00,29.3,17.5,28.70,SSW,202,0.0,1.6,61,0.00,,---,0.00,VWS V14.01,2013-02-20 06:51:00,
2013-02-20 01:52:00,29.3,17.5,28.70,NW,315,0.0,0.0,61,0.00,,---,0.00,VWS V14.01,2013-02-20 06:52:00,
2013-02-20 01:53:00,29.3,17.5,28.70,NW,315,0.0,0.0,61,0.00,,---,0.00,VWS V14.01,2013-02-20 06:53:00,
2013-02-20 01:54:00,29.3,17.5,28.70,West,270,0.0,0.0,61,0.00,,---,0.00,VWS V14.01,2013-02-20 06:54:00,
2013-02-20 01:55:00,29.3,17.5,28.70,West,270,1.6,1.6,61,0.00,,---,0.00,VWS V14.01,2013-02-20 06:55:00,
2013-02-20 01:56:00,29.3,17.9,28.73,NNE,22,2.5,2.5,62,0.00,,---,0.00,VWS V14.01,2013-02-20 06:56:00,
2013-02-20 01:57:00,29.3,17.9,28.73,NNE,22,0.9,2.5,62,0.00,,---,0.00,VWS V14.01,2013-02-20 06:57:00,
2013-02-20 01:58:00,29.3,17.5,28.73,East,90,2.2,2.2,61,0.00,,---,0.00,VWS V14.01,2013-02-20 06:58:00,
2013-02-20 01:59:00,29.3,17.5,28.73,West,270,4.7,4.7,61,0.00,,---,0.00,VWS V14.01,2013-02-20 06:59:00,
2013-02-20 02:00:00,29.3,17.5,28.73,West,270,1.3,4.7,61,0.00,,---,0.00,VWS V14.01,2013-02-20 07:00:00,
2013-02-20 02:01:00,29.3,17.5,28.73,WNW,292,0.0,0.0,61,0.00,,---,0.00,VWS V14.01,2013-02-20 07:01:00,
2013-02-20 02:02:00,29.3,17.5,28.73,NNW,338,1.3,1.3,61,0.00,,---,0.00,VWS V14.01,2013-02-20 07:02:00,
2013-02-20 02:03:00,29.1,17.4,28.73,NNW,338,1.3,1.3,61,0.00,,---,0.00,VWS V14.01,2013-02-20 07:03:00,
2013-02-20 02:04:00,29.1,17.4,28.73,NNW,338,2.9,2.9,61,0.00,,---,0.00,VWS V14.01,2013-02-20 07:04:00,
2013-02-20 02:05:00,29.1,17.0,28.73,NNW,338,2.9,2.9,60,0.00,,---,0.00,VWS V14.01,2013-02-20 07:05:00,
2013-02-20 02:06:00,29.1,17.0,28.73,NNW,338,1.1,1.1,60,0.00,,---,0.00,VWS V14.01,2013-02-20 07:06:00,
2013-02-20 02:07:00,29.1,17.0,28.73,NNW,338,2.0,2.0,60,0.00,,---,0.00,VWS V14.01,2013-02-20 07:07:00,
2013-02-20 02:08:00,29.1,17.0,28.73,NNW,338,4.0,4.0,60,0.00,,---,0.00,VWS V14.01,2013-02-20 07:08:00,
2013-02-20 02:09:00,29.1,17.4,28.73,NNW,338,1.1,4.0,61,0.00,,---,0.00,VWS V14.01,2013-02-20 07:09:00,
2013-02-20 02:10:00,29.1,17.4,28.73,NNW,338,1.3,1.3,61,0.00,,---,0.00,VWS V14.01,2013-02-20 07:10:00,
2013-02-20 02:11:00,28.9,16.8,28.73,NNW,338,1.3,1.3,60,0.00,,---,0.00,VWS V14.01,2013-02-20 07:11:00,
2013-02-20 02:12:00,28.9,16.8,28.73,NNW,338,1.3,2.9,60,0.00,,---,0.00,VWS V14.01,2013-02-20 07:12:00,
2013-02-20 02:13:00,28.9,16.8,28.73,NNW,338,2.9,2.9,60,0.00,,---,0.00,VWS V14.01,2013-02-20 07:13:00,
2013-02-20 02:14:00,28.9,16.8,28.73,NNW,338,2.0,2.9,60,0.00,,---,0.00,VWS V14.01,2013-02-20 07:14:00,
2013-02-20 02:15:00,28.9,16.8,28.73,NNW,338,0.0,2.0,60,0.00,,---,0.00,VWS V14.01,2013-02-20 07:15:00,
2013-02-20 02:16:00,28.9,16.8,28.73,NNW,338,0.0,0.0,60,0.00,,---,0.00,VWS V14.01,2013-02-20 07:16:00,
2013-02-20 02:17:00,28.9,16.8,28.73,SSW,202,1.6,1.6,60,0.00,,---,0.00,VWS V14.01,2013-02-20 07:17:00,
2013-02-20 02:18:00,28.8,16.6,28.73,WSW,248,3.4,3.4,60,0.00,,---,0.00,VWS V14.01,2013-02-20 07:18:00,
2013-02-20 02:19:00,28.8,16.6,28.73,WNW,292,0.0,3.4,60,0.00,,---,0.00,VWS V14.01,2013-02-20 07:19:00,
2013-02-20 02:20:00,28.8,16.6,28.73,WSW,248,1.3,1.3,60,0.00,,---,0.00,VWS V14.01,2013-02-20 07:20:00,
2013-02-20 02:21:00,28.8,16.6,28.73,WNW,292,3.6,3.6,60,0.00,,---,0.00,VWS V14.01,2013-02-20 07:21:00,
2013-02-20 02:22:00,28.8,16.6,28.73,NW,315,2.2,3.6,60,0.00,,---,0.00,VWS V14.01,2013-02-20 07:22:00,
2013-02-20 02:23:00,28.8,16.2,28.73,NNW,338,1.6,2.2,59,0.00,,---,0.00,VWS V14.01,2013-02-20 07:23:00,
2013-02-20 02:24:00,28.8,16.2,28.73,NNW,338,1.6,1.6,59,0.00,,---,0.00,VWS V14.01,2013-02-20 07:24:00,
2013-02-20 02:25:00,28.8,16.2,28.73,NNW,338,1.6,1.6,59,0.00,,---,0.00,VWS V14.01,2013-02-20 07:25:00,
2013-02-20 02:26:00,28.8,16.2,28.70,WNW,292,2.5,2.5,59,0.00,,---,0.00,VWS V14.01,2013-02-20 07:26:00,
2013-02-20 02:27:00,28.8,16.2,28.70,NW,315,0.9,2.5,59,0.00,,---,0.00,VWS V14.01,2013-02-20 07:27:00,
2013-02-20 02:28:00,28.6,16.1,28.70,ESE,112,1.6,1.6,59,0.00,,---,0.00,VWS V14.01,2013-02-20 07:28:00,
2013-02-20 02:29:00,28.6,16.1,28.70,NNW,338,0.0,1.6,59,0.00,,---,0.00,VWS V14.01,2013-02-20 07:29:00,
2013-02-20 02:30:00,28.6,16.1,28.70,NNW,338,0.0,0.0,59,0.00,,---,0.00,VWS V14.01,2013-02-20 07:30:00,
2013-02-20 02:31:00,28.6,16.1,28.70,SE,135,2.5,2.5,59,0.00,,---,0.00,VWS V14.01,2013-02-20 07:31:00,
2013-02-20 02:32:00,28.4,15.9,28.70,WNW,292,3.4,3.4,59,0.00,,---,0.00,VWS V14.01,2013-02-20 07:32:00,
2013-02-20 02:33:00,28.2,15.8,28.70,WNW,292,3.4,3.4,59,0.00,,---,0.00,VWS V14.01,2013-02-20 07:33:00,
2013-02-20 02:34:00,28.2,15.8,28.70,WNW,292,0.0,3.4,59,0.00,,---,0.00,VWS V14.01,2013-02-20 07:34:00,
2013-02-20 02:35:00,28.2,15.8,28.70,NW,315,2.7,2.7,59,0.00,,---,0.00,VWS V14.01,2013-02-20 07:35:00,
2013-02-20 02:36:00,28.2,15.8,28.70,WSW,248,2.9,2.9,59,0.00,,---,0.00,VWS V14.01,2013-02-20 07:36:00,
2013-02-20 02:37:00,28.0,15.6,28.70,WSW,248,2.9,2.9,59,0.00,,---,0.00,VWS V14.01,2013-02-20 07:37:00,
2013-02-20 02:38:00,27.9,15.4,28.70,West,270,2.7,2.9,59,0.00,,---,0.00,VWS V14.01,2013-02-20 07:38:00,
2013-02-20 02:39:00,27.9,15.4,28.70,SSW,202,3.4,3.4,59,0.00,,---,0.00,VWS V14.01,2013-02-20 07:39:00,
2013-02-20 02:40:00,27.9,15.4,28.70,ESE,112,1.1,3.4,59,0.00,,---,0.00,VWS V14.01,2013-02-20 07:40:00,
2013-02-20 02:41:00,27.9,15.4,28.73,NNW,338,6.0,6.0,59,0.00,,---,0.00,VWS V14.01,2013-02-20 07:41:00,
2013-02-20 02:42:00,27.7,15.2,28.73,NNW,338,6.0,6.0,59,0.00,,---,0.00,VWS V14.01,2013-02-20 07:42:00,
2013-02-20 02:43:00,27.7,15.2,28.73,WNW,292,2.5,6.0,59,0.00,,---,0.00,VWS V14.01,2013-02-20 07:43:00,
2013-02-20 02:44:00,27.7,15.2,28.73,WNW,292,1.6,2.5,59,0.00,,---,0.00,VWS V14.01,2013-02-20 07:44:00,
2013-02-20 02:45:00,27.7,15.2,28.73,WNW,292,1.6,1.6,59,0.00,,---,0.00,VWS V14.01,2013-02-20 07:45:00,
2013-02-20 02:46:00,27.7,15.2,28.73,SSE,158,2.5,2.5,59,0.00,,---,0.00,VWS V14.01,2013-02-20 07:46:00,
2013-02-20 02:47:00,27.7,15.2,28.73,South,180,1.3,2.5,59,0.00,,---,0.00,VWS V14.01,2013-02-20 07:47:00,
2013-02-20 02:48:00,27.5,15.4,28.73,South,180,2.2,2.2,60,0.00,,---,0.00,VWS V14.01,2013-02-20 07:48:00,
2013-02-20 02:49:00,27.5,15.1,28.73,WSW,248,3.8,6.3,59,0.00,,---,0.00,VWS V14.01,2013-02-20 07:49:00,
2013-02-20 02:50:00,27.5,15.1,28.73,WSW,248,3.8,3.8,59,0.00,,---,0.00,VWS V14.01,2013-02-20 07:50:00,
2013-02-20 02:51:00,27.3,15.3,28.73,WNW,292,2.5,3.8,60,0.00,,---,0.00,VWS V14.01,2013-02-20 07:51:00,
2013-02-20 02:52:00,27.3,15.3,28.73,SSW,202,2.0,2.5,60,0.00,,---,0.00,VWS V14.01,2013-02-20 07:52:00,
2013-02-20 02:53:00,27.3,15.3,28.73,WSW,248,1.6,2.0,60,0.00,,---,0.00,VWS V14.01,2013-02-20 07:53:00,
2013-02-20 02:54:00,27.3,14.9,28.73,WNW,292,0.9,1.6,59,0.00,,---,0.00,VWS V14.01,2013-02-20 07:54:00,
2013-02-20 02:55:00,27.3,14.9,28.73,ENE,68,2.2,2.2,59,0.00,,---,0.00,VWS V14.01,2013-02-20 07:55:00,
2013-02-20 02:56:00,27.3,15.3,28.73,SSW,202,2.0,2.2,60,0.00,,---,0.00,VWS V14.01,2013-02-20 07:56:00,
2013-02-20 02:57:00,27.3,15.3,28.73,ESE,112,1.3,2.0,60,0.00,,---,0.00,VWS V14.01,2013-02-20 07:57:00,
2013-02-20 02:58:00,27.3,15.3,28.73,WNW,292,1.6,1.6,60,0.00,,---,0.00,VWS V14.01,2013-02-20 07:58:00,
2013-02-20 02:59:00,27.1,14.7,28.73,ENE,68,2.0,2.0,59,0.00,,---,0.00,VWS V14.01,2013-02-20 07:59:00,
2013-02-20 03:00:00,27.1,14.7,28.73,NW,315,1.1,2.0,59,0.00,,---,0.00,VWS V14.01,2013-02-20 08:00:00,
2013-02-20 03:01:00,27.1,14.7,28.73,WNW,292,2.0,2.0,59,0.00,,---,0.00,VWS V14.01,2013-02-20 08:01:00,
2013-02-20 03:02:00,27.1,15.1,28.73,WNW,292,1.1,2.5,60,0.00,,---,0.00,VWS V14.01,2013-02-20 08:02:00,
2013-02-20 03:03:00,27.1,15.1,28.73,WNW,292,1.1,1.1,60,0.00,,---,0.00,VWS V14.01,2013-02-20 08:03:00,
2013-02-20 03:04:00,27.1,15.1,28.73,SSW,202,2.5,2.5,60,0.00,,---,0.00,VWS V14.01,2013-02-20 08:04:00,
2013-02-20 03:05:00,27.1,15.1,28.73,NNW,338,2.0,2.5,60,0.00,,---,0.00,VWS V14.01,2013-02-20 08:05:00,
2013-02-20 03:06:00,27.1,15.1,28.73,NW,315,2.7,2.9,60,0.00,,---,0.00,VWS V14.01,2013-02-20 08:06:00,
2013-02-20 03:07:00,27.0,14.9,28.73,SSW,202,2.7,2.7,60,0.00,,---,0.00,VWS V14.01,2013-02-20 08:07:00,
2013-02-20 03:08:00,27.0,14.9,28.73,NNE,22,2.5,2.7,60,0.00,,---,0.00,VWS V14.01,2013-02-20 08:08:00,
2013-02-20 03:09:00,27.0,14.9,28.73,South,180,1.6,2.5,60,0.00,,---,0.00,VWS V14.01,2013-02-20 08:09:00,
2013-02-20 03:10:00,27.0,14.9,28.73,NNW,338,1.1,1.6,60,0.00,,---,0.00,VWS V14.01,2013-02-20 08:10:00,
2013-02-20 03:11:00,27.0,14.9,28.73,WNW,292,2.0,2.0,60,0.00,,---,0.00,VWS V14.01,2013-02-20 08:11:00,
2013-02-20 03:12:00,27.0,14.9,28.70,SE,135,1.3,2.0,60,0.00,,---,0.00,VWS V14.01,2013-02-20 08:12:00,
2013-02-20 03:13:00,27.0,14.9,28.70,SSW,202,3.6,3.6,60,0.00,,---,0.00,VWS V14.01,2013-02-20 08:13:00,
2013-02-20 03:14:00,27.0,14.9,28.70,WNW,292,2.5,3.6,60,0.00,,---,0.00,VWS V14.01,2013-02-20 08:14:00,
2013-02-20 03:15:00,27.0,14.9,28.70,NE,45,1.1,2.5,60,0.00,,---,0.00,VWS V14.01,2013-02-20 08:15:00,
2013-02-20 03:16:00,27.0,14.9,28.70,WNW,292,3.6,3.6,60,0.00,,---,0.00,VWS V14.01,2013-02-20 08:16:00,
2013-02-20 03:17:00,27.0,14.9,28.70,WNW,292,1.6,3.6,60,0.00,,---,0.00,VWS V14.01,2013-02-20 08:17:00,
2013-02-20 03:18:00,27.0,14.9,28.70,SW,225,2.0,3.6,60,0.00,,---,0.00,VWS V14.01,2013-02-20 08:18:00,
2013-02-20 03:19:00,27.0,14.9,28.70,SW,225,2.0,2.0,60,0.00,,---,0.00,VWS V14.01,2013-02-20 08:19:00,
2013-02-20 03:20:00,27.0,14.9,28.70,WSW,248,2.2,2.2,60,0.00,,---,0.00,VWS V14.01,2013-02-20 08:20:00,
2013-02-20 03:21:00,27.0,14.9,28.70,SSW,202,2.0,2.5,60,0.00,,---,0.00,VWS V14.01,2013-02-20 08:21:00,
2013-02-20 03:22:00,27.0,14.9,28.70,SSW,202,2.0,2.0,60,0.00,,---,0.00,VWS V14.01,2013-02-20 08:22:00,
2013-02-20 03:23:00,26.8,14.8,28.70,South,180,1.3,2.0,60,0.00,,---,0.00,VWS V14.01,2013-02-20 08:23:00,
2013-02-20 03:24:00,26.8,14.8,28.70,WNW,292,0.9,1.3,60,0.00,,---,0.00,VWS V14.01,2013-02-20 08:24:00,
2013-02-20 03:25:00,26.8,14.8,28.70,WNW,292,0.9,0.9,60,0.00,,---,0.00,VWS V14.01,2013-02-20 08:25:00,
2013-02-20 03:26:00,26.8,14.8,28.73,WSW,248,2.0,2.7,60,0.00,,---,0.00,VWS V14.01,2013-02-20 08:26:00,
2013-02-20 03:27:00,26.8,14.8,28.73,WNW,292,2.9,2.9,60,0.00,,---,0.00,VWS V14.01,2013-02-20 08:27:00,
2013-02-20 03:28:00,26.8,14.8,28.73,West,270,0.0,2.9,60,0.00,,---,0.00,VWS V14.01,2013-02-20 08:28:00,
2013-02-20 03:29:00,26.8,14.8,28.73,SSW,202,1.3,1.3,60,0.00,,---,0.00,VWS V14.01,2013-02-20 08:29:00,
2013-02-20 03:30:00,26.8,14.8,28.73,SSW,202,0.0,1.3,60,0.00,,---,0.00,VWS V14.01,2013-02-20 08:30:00,
2013-02-20 03:31:00,26.8,14.8,28.73,SSE,158,2.2,2.2,60,0.00,,---,0.00,VWS V14.01,2013-02-20 08:31:00,
2013-02-20 03:32:00,26.8,14.8,28.73,SSE,158,0.9,2.2,60,0.00,,---,0.00,VWS V14.01,2013-02-20 08:32:00,
2013-02-20 03:33:00,26.8,14.8,28.73,SSE,158,0.9,0.9,60,0.00,,---,0.00,VWS V14.01,2013-02-20 08:33:00,
2013-02-20 03:34:00,26.8,14.8,28.73,SE,135,2.9,2.9,60,0.00,,---,0.00,VWS V14.01,2013-02-20 08:34:00,
2013-02-20 03:35:00,26.8,14.8,28.73,SE,135,2.9,2.9,60,0.00,,---,0.00,VWS V14.01,2013-02-20 08:35:00,
2013-02-20 03:36:00,26.8,14.8,28.73,SSW,202,1.6,2.9,60,0.00,,---,0.00,VWS V14.01,2013-02-20 08:36:00,
2013-02-20 03:37:00,26.8,14.8,28.73,NNE,22,2.5,2.5,60,0.00,,---,0.00,VWS V14.01,2013-02-20 08:37:00,
2013-02-20 03:38:00,26.8,14.8,28.73,NNE,22,0.0,2.5,60,0.00,,---,0.00,VWS V14.01,2013-02-20 08:38:00,
2013-02-20 03:39:00,26.6,15.0,28.73,West,270,3.1,3.1,61,0.00,,---,0.00,VWS V14.01,2013-02-20 08:39:00,
2013-02-20 03:40:00,26.8,15.1,28.73,West,270,3.1,3.1,61,0.00,,---,0.00,VWS V14.01,2013-02-20 08:40:00,
2013-02-20 03:41:00,26.8,15.1,28.73,SSW,202,2.2,3.1,61,0.00,,---,0.00,VWS V14.01,2013-02-20 08:41:00,
2013-02-20 03:42:00,26.6,15.0,28.73,SSW,202,2.2,2.2,61,0.00,,---,0.00,VWS V14.01,2013-02-20 08:42:00,
2013-02-20 03:43:00,26.6,15.0,28.73,WSW,248,1.1,2.2,61,0.00,,---,0.00,VWS V14.01,2013-02-20 08:43:00,
2013-02-20 03:44:00,26.6,15.0,28.73,WSW,248,0.9,1.1,61,0.00,,---,0.00,VWS V14.01,2013-02-20 08:44:00,
2013-02-20 03:45:00,26.6,15.0,28.73,WSW,248,0.0,1.1,61,0.00,,---,0.00,VWS V14.01,2013-02-20 08:45:00,
2013-02-20 03:46:00,26.6,15.0,28.73,NW,315,0.9,0.9,61,0.00,,---,0.00,VWS V14.01,2013-02-20 08:46:00,
2013-02-20 03:47:00,26.6,15.0,28.73,NW,315,0.0,0.9,61,0.00,,---,0.00,VWS V14.01,2013-02-20 08:47:00,
2013-02-20 03:48:00,26.6,15.0,28.73,ENE,68,1.3,1.3,61,0.00,,---,0.00,VWS V14.01,2013-02-20 08:48:00,
2013-02-20 03:49:00,26.6,15.0,28.73,WNW,292,1.3,1.3,61,0.00,,---,0.00,VWS V14.01,2013-02-20 08:49:00,
2013-02-20 03:50:00,26.6,15.0,28.73,WNW,292,1.3,1.3,61,0.00,,---,0.00,VWS V14.01,2013-02-20 08:50:00,
2013-02-20 03:51:00,26.6,15.0,28.73,South,180,2.7,2.7,61,0.00,,---,0.00,VWS V14.01,2013-02-20 08:51:00,
2013-02-20 03:52:00,26.6,15.0,28.73,ENE,68,1.3,2.7,61,0.00,,---,0.00,VWS V14.01,2013-02-20 08:52:00,
2013-02-20 03:53:00,26.6,15.0,28.73,ENE,68,0.0,1.3,61,0.00,,---,0.00,VWS V14.01,2013-02-20 08:53:00,
2013-02-20 03:54:00,26.6,15.0,28.73,WNW,292,1.1,1.1,61,0.00,,---,0.00,VWS V14.01,2013-02-20 08:54:00,
2013-02-20 03:55:00,26.6,15.0,28.73,WNW,292,1.1,1.1,61,0.00,,---,0.00,VWS V14.01,2013-02-20 08:55:00,
2013-02-20 03:56:00,26.6,15.0,28.73,NNE,22,0.9,1.1,61,0.00,,---,0.00,VWS V14.01,2013-02-20 08:56:00,
2013-02-20 03:57:00,26.6,15.0,28.73,SW,225,2.5,3.1,61,0.00,,---,0.00,VWS V14.01,2013-02-20 08:57:00,
2013-02-20 03:58:00,26.6,15.0,28.73,SW,225,2.5,2.5,61,0.00,,---,0.00,VWS V14.01,2013-02-20 08:58:00,
2013-02-20 03:59:00,26.6,15.0,28.73,SSW,202,2.0,2.0,61,0.00,,---,0.00,VWS V14.01,2013-02-20 08:59:00,
2013-02-20 04:00:00,26.6,15.0,28.73,East,90,1.1,2.0,61,0.00,,---,0.00,VWS V14.01,2013-02-20 09:00:00,
2013-02-20 04:01:00,26.6,15.0,28.73,South,180,2.5,2.5,61,0.00,,---,0.00,VWS V14.01,2013-02-20 09:01:00,
2013-02-20 04:02:00,26.6,15.0,28.73,ENE,68,3.1,3.1,61,0.00,,---,0.00,VWS V14.01,2013-02-20 09:02:00,
2013-02-20 04:03:00,26.6,15.0,28.73,SSE,158,2.0,3.1,61,0.00,,---,0.00,VWS V14.01,2013-02-20 09:03:00,
2013-02-20 04:04:00,26.6,15.0,28.73,WNW,292,1.6,1.6,61,0.00,,---,0.00,VWS V14.01,2013-02-20 09:04:00,
2013-02-20 04:05:00,26.6,15.0,28.73,WNW,292,1.6,1.6,61,0.00,,---,0.00,VWS V14.01,2013-02-20 09:05:00,
2013-02-20 04:06:00,26.6,15.0,28.73,SSW,202,1.3,1.6,61,0.00,,---,0.00,VWS V14.01,2013-02-20 09:06:00,
2013-02-20 04:07:00,26.6,15.0,28.73,ESE,112,1.1,1.3,61,0.00,,---,0.00,VWS V14.01,2013-02-20 09:07:00,
2013-02-20 04:08:00,26.6,15.0,28.73,ESE,112,0.0,1.1,61,0.00,,---,0.00,VWS V14.01,2013-02-20 09:08:00,
2013-02-20 04:09:00,26.6,15.0,28.73,ENE,68,2.0,2.0,61,0.00,,---,0.00,VWS V14.01,2013-02-20 09:09:00,
2013-02-20 04:10:00,26.6,15.0,28.73,ENE,68,2.0,2.0,61,0.00,,---,0.00,VWS V14.01,2013-02-20 09:10:00,
2013-02-20 04:11:00,26.6,15.0,28.73,NE,45,3.1,3.1,61,0.00,,---,0.00,VWS V14.01,2013-02-20 09:11:00,
2013-02-20 04:12:00,26.6,15.0,28.73,NNE,22,1.6,3.1,61,0.00,,---,0.00,VWS V14.01,2013-02-20 09:12:00,
2013-02-20 04:13:00,26.6,15.0,28.73,NNE,22,1.3,1.6,61,0.00,,---,0.00,VWS V14.01,2013-02-20 09:13:00,
2013-02-20 04:14:00,26.6,15.0,28.73,NE,45,1.1,1.1,61,0.00,,---,0.00,VWS V14.01,2013-02-20 09:14:00,
2013-02-20 04:15:00,26.6,15.0,28.73,NE,45,1.1,1.1,61,0.00,,---,0.00,VWS V14.01,2013-02-20 09:15:00,
2013-02-20 04:16:00,26.6,15.0,28.73,WSW,248,2.7,2.7,61,0.00,,---,0.00,VWS V14.01,2013-02-20 09:16:00,
2013-02-20 04:17:00,26.6,15.0,28.73,WSW,248,2.7,2.7,61,0.00,,---,0.00,VWS V14.01,2013-02-20 09:17:00,
2013-02-20 04:18:00,26.6,15.0,28.73,WNW,292,1.3,2.7,61,0.00,,---,0.00,VWS V14.01,2013-02-20 09:18:00,
2013-02-20 04:19:00,26.6,15.0,28.73,WNW,292,3.4,3.4,61,0.00,,---,0.00,VWS V14.01,2013-02-20 09:19:00,
2013-02-20 04:20:00,26.6,15.0,28.73,WNW,292,3.4,3.4,61,0.00,,---,0.00,VWS V14.01,2013-02-20 09:20:00,
2013-02-20 04:21:00,26.6,15.0,28.73,WNW,292,0.0,3.4,61,0.00,,---,0.00,VWS V14.01,2013-02-20 09:21:00,
2013-02-20 04:22:00,26.6,15.0,28.73,NNE,22,2.9,2.9,61,0.00,,---,0.00,VWS V14.01,2013-02-20 09:22:00,
2013-02-20 04:23:00,26.6,15.0,28.73,NNW,338,0.0,2.9,61,0.00,,---,0.00,VWS V14.01,2013-02-20 09:23:00,
2013-02-20 04:24:00,26.6,15.0,28.73,NNW,338,1.6,1.6,61,0.00,,---,0.00,VWS V14.01,2013-02-20 09:24:00,
2013-02-20 04:25:00,26.6,15.0,28.73,NNW,338,1.3,1.6,61,0.00,,---,0.00,VWS V14.01,2013-02-20 09:25:00,
2013-02-20 04:26:00,26.6,15.0,28.73,NNW,338,0.9,1.3,61,0.00,,---,0.00,VWS V14.01,2013-02-20 09:26:00,
2013-02-20 04:27:00,26.6,15.0,28.73,WNW,292,2.5,2.5,61,0.00,,---,0.00,VWS V14.01,2013-02-20 09:27:00,
2013-02-20 04:28:00,26.6,15.0,28.73,WNW,292,0.0,2.5,61,0.00,,---,0.00,VWS V14.01,2013-02-20 09:28:00,
2013-02-20 04:29:00,26.4,14.8,28.73,WNW,292,0.0,0.0,61,0.00,,---,0.00,VWS V14.01,2013-02-20 09:29:00,
2013-02-20 04:30:00,26.4,14.8,28.73,WNW,292,0.0,0.0,61,0.00,,---,0.00,VWS V14.01,2013-02-20 09:30:00,
2013-02-20 04:31:00,26.4,14.8,28.73,WNW,292,0.0,0.0,61,0.00,,---,0.00,VWS V14.01,2013-02-20 09:31:00,
2013-02-20 04:32:00,26.4,14.8,28.73,ENE,68,3.1,3.1,61,0.00,,---,0.00,VWS V14.01,2013-02-20 09:32:00,
2013-02-20 04:33:00,26.6,15.0,28.73,ENE,68,0.9,3.1,61,0.00,,---,0.00,VWS V14.01,2013-02-20 09:33:00,
2013-02-20 04:34:00,26.6,15.0,28.73,East,90,0.9,2.5,61,0.00,,---,0.00,VWS V14.01,2013-02-20 09:34:00,
2013-02-20 04:35:00,26.6,14.6,28.73,East,90,0.9,2.5,60,0.00,,---,0.00,VWS V14.01,2013-02-20 09:35:00,
2013-02-20 04:36:00,26.6,14.6,28.73,SW,225,1.6,1.6,60,0.00,,---,0.00,VWS V14.01,2013-02-20 09:36:00,
2013-02-20 04:37:00,26.6,14.6,28.73,SW,225,1.6,1.6,60,0.00,,---,0.00,VWS V14.01,2013-02-20 09:37:00,
2013-02-20 04:38:00,26.6,14.6,28.73,NE,45,1.1,1.6,60,0.00,,---,0.00,VWS V14.01,2013-02-20 09:38:00,
2013-02-20 04:39:00,26.6,14.6,28.73,West,270,0.0,0.0,60,0.00,,---,0.00,VWS V14.01,2013-02-20 09:39:00,
2013-02-20 04:40:00,26.6,14.6,28.73,South,180,2.0,2.0,60,0.00,,---,0.00,VWS V14.01,2013-02-20 09:40:00,
2013-02-20 04:41:00,26.6,14.6,28.73,WSW,248,0.9,2.0,60,0.00,,---,0.00,VWS V14.01,2013-02-20 09:41:00,
2013-02-20 04:42:00,26.6,14.6,28.73,WSW,248,0.9,0.9,60,0.00,,---,0.00,VWS V14.01,2013-02-20 09:42:00,
2013-02-20 04:43:00,26.6,14.6,28.73,WNW,292,3.4,3.4,60,0.00,,---,0.00,VWS V14.01,2013-02-20 09:43:00,
2013-02-20 04:44:00,26.6,14.6,28.73,WNW,292,1.3,1.3,60,0.00,,---,0.00,VWS V14.01,2013-02-20 09:44:00,
2013-02-20 04:45:00,26.6,14.6,28.73,WNW,292,2.2,2.2,60,0.00,,---,0.00,VWS V14.01,2013-02-20 09:45:00,
2013-02-20 04:46:00,26.6,14.6,28.73,West,270,2.0,2.2,60,0.00,,---,0.00,VWS V14.01,2013-02-20 09:46:00,
2013-02-20 04:47:00,26.6,14.6,28.73,NNW,338,0.0,2.0,60,0.00,,---,0.00,VWS V14.01,2013-02-20 09:47:00,
2013-02-20 04:48:00,26.6,14.2,28.73,WNW,292,1.6,1.6,59,0.00,,---,0.00,VWS V14.01,2013-02-20 09:48:00,
2013-02-20 04:49:00,26.6,14.2,28.73,WNW,292,2.0,2.0,59,0.00,,---,0.00,VWS V14.01,2013-02-20 09:49:00,
2013-02-20 04:50:00,26.6,14.2,28.73,WSW,248,3.4,3.4,59,0.00,,---,0.00,VWS V14.01,2013-02-20 09:50:00,
2013-02-20 04:51:00,26.6,14.2,28.73,West,270,2.2,3.4,59,0.00,,---,0.00,VWS V14.01,2013-02-20 09:51:00,
2013-02-20 04:52:00,26.6,14.2,28.73,West,270,2.0,2.2,59,0.00,,---,0.00,VWS V14.01,2013-02-20 09:52:00,
2013-02-20 04:53:00,26.4,14.1,28.73,West,270,1.1,2.0,59,0.00,,---,0.00,VWS V14.01,2013-02-20 09:53:00,
2013-02-20 04:54:00,26.4,14.1,28.73,West,270,1.3,1.3,59,0.00,,---,0.00,VWS V14.01,2013-02-20 09:54:00,
2013-02-20 04:55:00,26.4,14.1,28.73,West,270,0.0,1.3,59,0.00,,---,0.00,VWS V14.01,2013-02-20 09:55:00,
2013-02-20 04:56:00,26.4,14.1,28.73,West,270,2.5,2.5,59,0.00,,---,0.00,VWS V14.01,2013-02-20 09:56:00,
2013-02-20 04:57:00,26.4,14.1,28.73,West,270,0.0,2.5,59,0.00,,---,0.00,VWS V14.01,2013-02-20 09:57:00,
2013-02-20 04:58:00,26.4,14.1,28.73,West,270,0.0,0.0,59,0.00,,---,0.00,VWS V14.01,2013-02-20 09:58:00,
2013-02-20 04:59:00,26.2,13.9,28.73,West,270,0.0,0.0,59,0.00,,---,0.00,VWS V14.01,2013-02-20 09:59:00,
2013-02-20 05:00:00,26.1,13.7,28.73,West,270,0.0,0.0,59,0.00,,---,0.00,VWS V14.01,2013-02-20 10:00:00,
2013-02-20 05:01:00,26.1,13.7,28.73,West,270,0.0,0.0,59,0.00,,---,0.00,VWS V14.01,2013-02-20 10:01:00,
2013-02-20 05:02:00,26.1,13.7,28.73,West,270,0.0,0.0,59,0.00,,---,0.00,VWS V14.01,2013-02-20 10:02:00,
2013-02-20 05:03:00,26.1,13.7,28.73,WSW,248,1.3,1.3,59,0.00,,---,0.00,VWS V14.01,2013-02-20 10:03:00,
2013-02-20 05:04:00,26.1,13.7,28.73,WSW,248,0.0,1.3,59,0.00,,---,0.00,VWS V14.01,2013-02-20 10:04:00,
2013-02-20 05:05:00,26.1,13.7,28.73,WSW,248,0.0,0.0,59,0.00,,---,0.00,VWS V14.01,2013-02-20 10:05:00,
2013-02-20 05:06:00,26.1,13.7,28.73,WSW,248,0.0,0.0,59,0.00,,---,0.00,VWS V14.01,2013-02-20 10:06:00,
2013-02-20 05:07:00,25.9,13.5,28.73,WSW,248,0.0,0.0,59,0.00,,---,0.00,VWS V14.01,2013-02-20 10:07:00,
2013-02-20 05:08:00,25.9,13.5,28.73,WSW,248,0.0,0.0,59,0.00,,---,0.00,VWS V14.01,2013-02-20 10:08:00,
2013-02-20 05:09:00,25.9,13.9,28.73,WSW,248,0.0,0.0,60,0.00,,---,0.00,VWS V14.01,2013-02-20 10:09:00,
2013-02-20 05:10:00,25.9,13.9,28.73,WSW,248,0.0,0.0,60,0.00,,---,0.00,VWS V14.01,2013-02-20 10:10:00,
2013-02-20 05:11:00,25.9,13.5,28.70,WSW,248,0.0,0.0,59,0.00,,---,0.00,VWS V14.01,2013-02-20 10:11:00,
2013-02-20 05:12:00,25.7,13.4,28.70,WSW,248,0.0,0.0,59,0.00,,---,0.00,VWS V14.01,2013-02-20 10:12:00,
2013-02-20 05:13:00,25.7,13.4,28.70,WSW,248,0.0,0.0,59,0.00,,---,0.00,VWS V14.01,2013-02-20 10:13:00,
2013-02-20 05:14:00,25.7,13.8,28.70,WSW,248,0.0,0.0,60,0.00,,---,0.00,VWS V14.01,2013-02-20 10:14:00,
2013-02-20 05:15:00,25.7,13.8,28.70,WSW,248,0.0,0.0,60,0.00,,---,0.00,VWS V14.01,2013-02-20 10:15:00,
2013-02-20 05:16:00,25.5,13.6,28.70,WSW,248,0.9,0.9,60,0.00,,---,0.00,VWS V14.01,2013-02-20 10:16:00,
2013-02-20 05:17:00,25.5,13.6,28.70,West,270,0.9,0.9,60,0.00,,---,0.00,VWS V14.01,2013-02-20 10:17:00,
2013-02-20 05:18:00,25.7,13.8,28.70,West,270,0.0,0.9,60,0.00,,---,0.00,VWS V14.01,2013-02-20 10:18:00,
2013-02-20 05:19:00,25.7,13.8,28.70,West,270,0.0,0.0,60,0.00,,---,0.00,VWS V14.01,2013-02-20 10:19:00,
2013-02-20 05:20:00,25.5,13.6,28.70,West,270,0.0,0.0,60,0.00,,---,0.00,VWS V14.01,2013-02-20 10:20:00,
2013-02-20 05:21:00,25.5,13.6,28.70,West,270,0.0,0.0,60,0.00,,---,0.00,VWS V14.01,2013-02-20 10:21:00,
2013-02-20 05:22:00,25.5,13.6,28.70,West,270,0.0,0.0,60,0.00,,---,0.00,VWS V14.01,2013-02-20 10:22:00,
2013-02-20 05:23:00,25.5,13.6,28.70,West,270,0.0,0.0,60,0.00,,---,0.00,VWS V14.01,2013-02-20 10:23:00,
2013-02-20 05:24:00,25.5,13.6,28.70,West,270,0.0,0.0,60,0.00,,---,0.00,VWS V14.01,2013-02-20 10:24:00,
2013-02-20 05:25:00,25.3,13.4,28.70,West,270,0.0,0.0,60,0.00,,---,0.00,VWS V14.01,2013-02-20 10:25:00,
2013-02-20 05:26:00,25.3,13.4,28.70,West,270,0.0,0.0,60,0.00,,---,0.00,VWS V14.01,2013-02-20 10:26:00,
2013-02-20 05:27:00,25.3,13.4,28.70,West,270,0.0,0.0,60,0.00,,---,0.00,VWS V14.01,2013-02-20 10:27:00,
2013-02-20 05:28:00,25.3,13.4,28.70,West,270,0.0,0.0,60,0.00,,---,0.00,VWS V14.01,2013-02-20 10:28:00,
2013-02-20 05:29:00,25.3,13.4,28.70,West,270,0.0,0.0,60,0.00,,---,0.00,VWS V14.01,2013-02-20 10:29:00,
2013-02-20 05:30:00,25.3,13.4,28.70,West,270,0.0,0.0,60,0.00,,---,0.00,VWS V14.01,2013-02-20 10:30:00,
2013-02-20 05:31:00,25.3,13.4,28.70,West,270,0.0,0.0,60,0.00,,---,0.00,VWS V14.01,2013-02-20 10:31:00,
2013-02-20 05:32:00,25.3,13.4,28.70,West,270,1.3,1.3,60,0.00,,---,0.00,VWS V14.01,2013-02-20 10:32:00,
2013-02-20 05:33:00,25.3,13.4,28.70,West,270,2.0,2.0,60,0.00,,---,0.00,VWS V14.01,2013-02-20 10:33:00,
2013-02-20 05:34:00,25.3,13.4,28.70,West,270,0.0,2.0,60,0.00,,---,0.00,VWS V14.01,2013-02-20 10:34:00,
2013-02-20 05:35:00,25.3,13.4,28.70,West,270,0.0,0.0,60,0.00,,---,0.00,VWS V14.01,2013-02-20 10:35:00,
2013-02-20 05:36:00,25.2,13.2,28.70,West,270,0.0,0.0,60,0.00,,---,0.00,VWS V14.01,2013-02-20 10:36:00,
2013-02-20 05:37:00,25.2,13.2,28.70,West,270,0.0,0.0,60,0.00,,---,0.00,VWS V14.01,2013-02-20 10:37:00,
2013-02-20 05:38:00,25.2,13.2,28.70,West,270,0.0,0.0,60,0.00,,---,0.00,VWS V14.01,2013-02-20 10:38:00,
2013-02-20 05:39:00,25.2,13.2,28.70,West,270,0.0,0.0,60,0.00,,---,0.00,VWS V14.01,2013-02-20 10:39:00,
2013-02-20 05:40:00,25.2,13.2,28.70,West,270,0.0,0.0,60,0.00,,---,0.00,VWS V14.01,2013-02-20 10:40:00,
2013-02-20 05:41:00,25.0,13.1,28.70,West,270,0.0,0.0,60,0.00,,---,0.00,VWS V14.01,2013-02-20 10:41:00,
2013-02-20 05:42:00,25.0,13.1,28.70,West,270,0.0,0.0,60,0.00,,---,0.00,VWS V14.01,2013-02-20 10:42:00,
2013-02-20 05:44:00,25.0,13.1,28.70,West,270,0.0,0.0,60,0.00,,---,0.00,VWS V14.01,2013-02-20 10:44:00,
2013-02-20 05:45:00,25.0,13.1,28.70,West,270,1.1,1.1,60,0.00,,---,0.00,VWS V14.01,2013-02-20 10:45:00,
2013-02-20 05:49:00,24.8,13.3,28.70,West,270,0.0,0.0,61,0.00,,---,0.00,VWS V14.01,2013-02-20 10:49:00,
2013-02-20 05:50:00,24.8,13.3,28.70,West,270,0.0,0.0,61,0.00,,---,0.00,VWS V14.01,2013-02-20 10:50:00,
2013-02-20 05:51:00,24.8,13.3,28.70,West,270,0.0,0.0,61,0.00,,---,0.00,VWS V14.01,2013-02-20 10:51:00,
2013-02-20 05:52:00,24.8,13.3,28.70,West,270,0.0,0.0,61,0.00,,---,0.00,VWS V14.01,2013-02-20 10:52:00,
2013-02-20 05:53:00,24.6,13.1,28.70,West,270,0.0,0.0,61,0.00,,---,0.00,VWS V14.01,2013-02-20 10:53:00,
2013-02-20 05:54:00,24.6,13.1,28.70,West,270,0.0,0.0,61,0.00,,---,0.00,VWS V14.01,2013-02-20 10:54:00,
2013-02-20 05:55:00,24.6,13.1,28.70,West,270,0.0,0.0,61,0.00,,---,0.00,VWS V14.01,2013-02-20 10:55:00,
2013-02-20 05:56:00,24.6,13.1,28.70,West,270,0.0,0.0,61,0.00,,---,0.00,VWS V14.01,2013-02-20 10:56:00,
2013-02-20 05:57:00,24.4,12.9,28.70,West,270,0.0,0.0,61,0.00,,---,0.00,VWS V14.01,2013-02-20 10:57:00,
2013-02-20 05:58:00,24.4,12.9,28.70,West,270,0.0,0.0,61,0.00,,---,0.00,VWS V14.01,2013-02-20 10:58:00,
2013-02-20 05:59:00,24.4,12.9,28.70,West,270,0.0,0.0,61,0.00,,---,0.00,VWS V14.01,2013-02-20 10:59:00,
2013-02-20 06:00:00,24.6,13.1,28.70,West,270,0.0,0.0,61,0.00,,---,0.00,VWS V14.01,2013-02-20 11:00:00,
2013-02-20 06:01:00,24.6,13.1,28.70,West,270,0.0,0.0,61,0.00,,---,0.00,VWS V14.01,2013-02-20 11:01:00,
2013-02-20 06:02:00,24.4,12.9,28.70,West,270,0.0,0.0,61,0.00,,---,0.00,VWS V14.01,2013-02-20 11:02:00,
2013-02-20 06:03:00,24.4,12.9,28.70,West,270,0.0,0.0,61,0.00,,---,0.00,VWS V14.01,2013-02-20 11:03:00,
2013-02-20 06:04:00,24.4,12.9,28.70,West,270,0.0,0.0,61,0.00,,---,0.00,VWS V14.01,2013-02-20 11:04:00,
2013-02-20 06:05:00,24.4,12.9,28.70,West,270,0.0,0.0,61,0.00,,---,0.00,VWS V14.01,2013-02-20 11:05:00,
2013-02-20 06:06:00,24.3,12.8,28.70,West,270,0.0,0.0,61,0.00,,---,0.00,VWS V14.01,2013-02-20 11:06:00,
2013-02-20 06:07:00,24.3,12.8,28.70,West,270,0.0,0.0,61,0.00,,---,0.00,VWS V14.01,2013-02-20 11:07:00,
2013-02-20 06:08:00,24.3,12.8,28.70,West,270,0.0,0.0,61,0.00,,---,0.00,VWS V14.01,2013-02-20 11:08:00,
2013-02-20 06:09:00,24.3,12.8,28.70,West,270,0.0,0.0,61,0.00,,---,0.00,VWS V14.01,2013-02-20 11:09:00,
2013-02-20 06:10:00,24.3,12.8,28.70,West,270,0.0,0.0,61,0.00,,---,0.00,VWS V14.01,2013-02-20 11:10:00,
2013-02-20 06:11:00,24.1,12.6,28.70,West,270,0.0,0.0,61,0.00,,---,0.00,VWS V14.01,2013-02-20 11:11:00,
2013-02-20 06:12:00,24.1,12.6,28.70,West,270,0.0,0.0,61,0.00,,---,0.00,VWS V14.01,2013-02-20 11:12:00,
2013-02-20 06:13:00,24.1,12.6,28.70,West,270,0.0,0.0,61,0.00,,---,0.00,VWS V14.01,2013-02-20 11:13:00,
2013-02-20 06:14:00,23.9,12.4,28.70,West,270,0.0,0.0,61,0.00,,---,0.00,VWS V14.01,2013-02-20 11:14:00,
2013-02-20 06:19:00,23.9,12.8,28.70,West,270,0.0,0.0,62,0.00,,---,0.00,VWS V14.01,2013-02-20 11:19:00,
2013-02-20 06:20:00,23.9,12.8,28.70,West,270,0.0,0.0,62,0.00,,---,0.00,VWS V14.01,2013-02-20 11:20:00,
2013-02-20 06:21:00,23.9,12.8,28.70,West,270,0.0,0.0,62,0.00,,---,0.00,VWS V14.01,2013-02-20 11:21:00,
2013-02-20 06:22:00,23.9,12.8,28.70,West,270,0.0,0.0,62,0.00,,---,0.00,VWS V14.01,2013-02-20 11:22:00,
2013-02-20 06:23:00,23.9,12.8,28.70,West,270,0.0,0.0,62,0.00,,---,0.00,VWS V14.01,2013-02-20 11:23:00,
2013-02-20 06:24:00,23.9,12.8,28.70,West,270,1.1,1.1,62,0.00,,---,0.00,VWS V14.01,2013-02-20 11:24:00,
2013-02-20 06:29:00,23.9,12.8,28.70,West,270,0.0,0.0,62,0.00,,---,0.00,VWS V14.01,2013-02-20 11:29:00,
2013-02-20 06:33:00,24.1,13.0,28.70,SE,135,2.5,2.5,62,0.00,,---,0.00,VWS V14.01,2013-02-20 11:33:00,
2013-02-20 06:34:00,24.3,12.8,28.70,SE,135,0.0,2.5,61,0.00,,---,0.00,VWS V14.01,2013-02-20 11:34:00,
2013-02-20 06:35:00,24.3,12.8,28.70,WNW,292,2.0,2.0,61,0.00,,---,0.00,VWS V14.01,2013-02-20 11:35:00,
2013-02-20 06:36:00,24.3,13.1,28.70,WNW,292,1.3,2.0,62,0.00,,---,0.00,VWS V14.01,2013-02-20 11:36:00,
2013-02-20 06:37:00,24.3,13.1,28.70,SSW,202,1.1,1.3,62,0.00,,---,0.00,VWS V14.01,2013-02-20 11:37:00,
2013-02-20 06:38:00,24.3,13.1,28.70,SSW,202,0.0,1.1,62,0.00,,---,0.00,VWS V14.01,2013-02-20 11:38:00,
2013-02-20 06:39:00,24.1,12.6,28.70,SSE,158,2.0,2.0,61,0.00,,---,0.00,VWS V14.01,2013-02-20 11:39:00,
2013-02-20 06:40:00,24.1,13.0,28.70,SSE,158,0.0,2.0,62,0.00,,---,0.00,VWS V14.01,2013-02-20 11:40:00,
2013-02-20 06:41:00,24.1,13.0,28.70,SSE,158,0.0,0.0,62,0.00,,---,0.00,VWS V14.01,2013-02-20 11:41:00,
2013-02-20 06:42:00,24.3,13.1,28.70,SSE,158,0.0,0.0,62,0.00,,---,0.00,VWS V14.01,2013-02-20 11:42:00,
2013-02-20 06:43:00,24.3,13.1,28.70,SSW,202,0.0,0.0,62,0.00,,---,0.00,VWS V14.01,2013-02-20 11:43:00,
2013-02-20 06:44:00,24.4,13.3,28.70,SSW,202,0.0,0.0,62,0.00,,---,0.00,VWS V14.01,2013-02-20 11:44:00,
2013-02-20 06:45:00,24.4,13.3,28.70,WNW,292,0.0,0.0,62,0.00,,---,0.00,VWS V14.01,2013-02-20 11:45:00,
2013-02-20 06:46:00,24.3,13.1,28.70,WSW,248,0.0,0.0,62,0.00,,---,0.00,VWS V14.01,2013-02-20 11:46:00,
2013-02-20 06:47:00,24.3,13.1,28.70,WSW,248,0.0,0.0,62,0.00,,---,0.00,VWS V14.01,2013-02-20 11:47:00,
2013-02-20 06:48:00,24.3,12.8,28.70,WSW,248,0.0,0.0,61,0.00,,---,0.00,VWS V14.01,2013-02-20 11:48:00,
2013-02-20 06:49:00,24.3,12.8,28.70,WSW,248,0.0,0.0,61,0.00,,---,0.00,VWS V14.01,2013-02-20 11:49:00,
2013-02-20 06:50:00,24.1,12.6,28.70,WSW,248,0.0,0.0,61,0.00,,---,0.00,VWS V14.01,2013-02-20 11:50:00,
2013-02-20 06:51:00,24.1,12.6,28.70,WSW,248,0.0,0.0,61,0.00,,---,0.00,VWS V14.01,2013-02-20 11:51:00,
2013-02-20 06:52:00,24.1,12.6,28.70,WSW,248,0.0,0.0,61,0.00,,---,0.00,VWS V14.01,2013-02-20 11:52:00,
2013-02-20 06:53:00,23.9,12.4,28.70,WSW,248,0.0,0.0,61,0.00,,---,0.00,VWS V14.01,2013-02-20 11:53:00,
2013-02-20 06:54:00,23.9,12.4,28.70,WSW,248,0.0,0.0,61,0.00,,---,0.00,VWS V14.01,2013-02-20 11:54:00,
2013-02-20 06:55:00,23.9,12.4,28.70,WSW,248,0.0,0.0,61,0.00,,---,0.00,VWS V14.01,2013-02-20 11:55:00,
2013-02-20 06:56:00,23.9,12.4,28.67,WSW,248,0.0,0.0,61,0.00,,---,0.00,VWS V14.01,2013-02-20 11:56:00,
2013-02-20 06:57:00,23.7,12.2,28.67,WSW,248,0.0,0.0,61,0.00,,---,0.00,VWS V14.01,2013-02-20 11:57:00,
2013-02-20 06:58:00,23.9,12.4,28.67,WSW,248,0.0,0.0,61,0.00,,---,0.00,VWS V14.01,2013-02-20 11:58:00,
2013-02-20 06:59:00,23.9,12.4,28.67,WSW,248,1.6,1.6,61,0.00,,---,0.00,VWS V14.01,2013-02-20 11:59:00,
2013-02-20 07:00:00,23.9,12.4,28.67,WSW,248,1.6,1.6,61,0.00,,---,0.00,VWS V14.01,2013-02-20 12:00:00,
2013-02-20 07:01:00,23.9,12.4,28.67,WSW,248,0.0,1.6,61,0.00,,---,0.00,VWS V14.01,2013-02-20 12:01:00,
2013-02-20 07:02:00,23.9,12.4,28.67,WSW,248,0.0,0.0,61,0.00,,---,0.00,VWS V14.01,2013-02-20 12:02:00,
2013-02-20 07:03:00,23.9,12.4,28.67,WSW,248,1.3,1.3,61,0.00,,---,0.00,VWS V14.01,2013-02-20 12:03:00,
2013-02-20 07:04:00,23.9,12.4,28.67,WSW,248,2.0,2.0,61,0.00,,---,0.00,VWS V14.01,2013-02-20 12:04:00,
2013-02-20 07:05:00,23.9,12.4,28.67,SSE,158,0.9,2.0,61,0.00,,---,0.00,VWS V14.01,2013-02-20 12:05:00,
2013-02-20 07:06:00,24.1,12.6,28.67,SSE,158,0.0,0.9,61,0.00,,---,0.00,VWS V14.01,2013-02-20 12:06:00,
2013-02-20 07:07:00,24.1,12.6,28.67,SSE,158,1.1,1.1,61,0.00,,---,0.00,VWS V14.01,2013-02-20 12:07:00,
2013-02-20 07:08:00,24.1,12.6,28.67,WNW,292,0.0,1.1,61,0.00,,---,0.00,VWS V14.01,2013-02-20 12:08:00,
2013-02-20 07:09:00,24.3,13.1,28.67,WNW,292,0.0,0.0,62,0.00,,---,0.00,VWS V14.01,2013-02-20 12:09:00,
2013-02-20 07:10:00,24.3,13.1,28.67,WNW,292,0.0,0.0,62,0.00,,---,0.00,VWS V14.01,2013-02-20 12:10:00,
2013-02-20 07:11:00,24.3,13.1,28.70,WNW,292,0.0,0.0,62,0.00,,---,0.00,VWS V14.01,2013-02-20 12:11:00,
2013-02-20 07:12:00,24.3,13.1,28.70,WNW,292,0.0,0.0,62,0.00,,---,0.00,VWS V14.01,2013-02-20 12:12:00,
2013-02-20 07:13:00,24.3,13.1,28.70,WNW,292,0.0,0.0,62,0.00,,---,0.00,VWS V14.01,2013-02-20 12:13:00,
2013-02-20 07:14:00,24.1,13.0,28.70,WNW,292,0.0,0.0,62,0.00,,---,0.00,VWS V14.01,2013-02-20 12:14:00,
2013-02-20 07:15:00,24.1,13.0,28.70,WNW,292,0.0,0.0,62,0.00,,---,0.00,VWS V14.01,2013-02-20 12:15:00,
2013-02-20 07:16:00,24.1,13.0,28.70,WNW,292,0.0,0.0,62,0.00,,---,0.00,VWS V14.01,2013-02-20 12:16:00,
2013-02-20 07:17:00,24.1,13.0,28.70,WNW,292,0.0,0.0,62,0.00,,---,0.00,VWS V14.01,2013-02-20 12:17:00,
2013-02-20 07:18:00,24.3,13.1,28.70,WNW,292,0.0,0.0,62,0.00,,---,0.00,VWS V14.01,2013-02-20 12:18:00,
2013-02-20 07:19:00,24.3,13.1,28.70,WNW,292,0.0,0.0,62,0.00,,---,0.00,VWS V14.01,2013-02-20 12:19:00,
2013-02-20 07:20:00,24.3,13.1,28.70,WNW,292,0.0,0.0,62,0.00,,---,0.00,VWS V14.01,2013-02-20 12:20:00,
2013-02-20 07:21:00,24.3,13.1,28.70,WNW,292,0.0,0.0,62,0.00,,---,0.00,VWS V14.01,2013-02-20 12:21:00,
2013-02-20 07:22:00,24.3,13.1,28.70,WNW,292,0.0,0.0,62,0.00,,---,0.00,VWS V14.01,2013-02-20 12:22:00,
2013-02-20 07:23:00,24.4,13.3,28.70,WNW,292,0.0,0.0,62,0.00,,---,0.00,VWS V14.01,2013-02-20 12:23:00,
2013-02-20 07:24:00,24.4,13.3,28.70,WNW,292,0.0,0.0,62,0.00,,---,0.00,VWS V14.01,2013-02-20 12:24:00,
2013-02-20 07:25:00,24.4,13.3,28.70,WNW,292,0.0,0.0,62,0.00,,---,0.00,VWS V14.01,2013-02-20 12:25:00,
2013-02-20 07:26:00,24.4,13.3,28.70,WNW,292,0.0,0.0,62,0.00,,---,0.00,VWS V14.01,2013-02-20 12:26:00,
2013-02-20 07:27:00,24.6,13.5,28.70,WNW,292,0.0,0.0,62,0.00,,---,0.00,VWS V14.01,2013-02-20 12:27:00,
2013-02-20 07:28:00,24.6,13.5,28.70,WNW,292,0.0,0.0,62,0.00,,---,0.00,VWS V14.01,2013-02-20 12:28:00,
2013-02-20 07:29:00,24.8,13.6,28.70,WNW,292,0.0,0.0,62,0.00,,---,0.00,VWS V14.01,2013-02-20 12:29:00,
2013-02-20 07:30:00,25.0,13.8,28.70,WNW,292,0.0,0.0,62,0.00,,---,0.00,VWS V14.01,2013-02-20 12:30:00,
2013-02-20 07:31:00,25.0,13.8,28.70,WNW,292,0.0,0.0,62,0.00,,---,0.00,VWS V14.01,2013-02-20 12:31:00,
2013-02-20 07:32:00,24.8,13.6,28.70,WNW,292,0.0,0.0,62,0.00,,---,0.00,VWS V14.01,2013-02-20 12:32:00,
2013-02-20 07:33:00,24.8,13.6,28.70,WNW,292,0.0,0.0,62,0.00,,---,0.00,VWS V14.01,2013-02-20 12:33:00,
2013-02-20 07:34:00,25.0,13.8,28.70,WNW,292,0.0,0.0,62,0.00,,---,0.00,VWS V14.01,2013-02-20 12:34:00,
2013-02-20 07:35:00,25.2,14.0,28.70,WNW,292,0.0,0.0,62,0.00,,---,0.00,VWS V14.01,2013-02-20 12:35:00,
2013-02-20 07:36:00,25.2,14.0,28.70,WNW,292,0.0,0.0,62,0.00,,---,0.00,VWS V14.01,2013-02-20 12:36:00,
2013-02-20 07:37:00,25.2,14.0,28.70,WNW,292,0.0,0.0,62,0.00,,---,0.00,VWS V14.01,2013-02-20 12:37:00,
2013-02-20 07:38:00,25.2,14.0,28.70,WNW,292,0.0,0.0,62,0.00,,---,0.00,VWS V14.01,2013-02-20 12:38:00,
2013-02-20 07:39:00,25.2,14.0,28.70,WNW,292,0.0,0.0,62,0.00,,---,0.00,VWS V14.01,2013-02-20 12:39:00,
2013-02-20 07:40:00,25.2,14.0,28.70,WNW,292,0.0,0.0,62,0.00,,---,0.00,VWS V14.01,2013-02-20 12:40:00,
2013-02-20 07:41:00,25.3,14.2,28.70,WNW,292,0.0,0.0,62,0.00,,---,0.00,VWS V14.01,2013-02-20 12:41:00,
2013-02-20 07:42:00,25.3,14.2,28.70,WNW,292,0.0,0.0,62,0.00,,---,0.00,VWS V14.01,2013-02-20 12:42:00,
2013-02-20 07:43:00,25.3,14.2,28.70,WNW,292,0.0,0.0,62,0.00,,---,0.00,VWS V14.01,2013-02-20 12:43:00,
2013-02-20 07:44:00,25.3,14.2,28.70,WNW,292,0.0,0.0,62,0.00,,---,0.00,VWS V14.01,2013-02-20 12:44:00,
2013-02-20 07:45:00,25.3,14.2,28.70,WNW,292,0.0,0.0,62,0.00,,---,0.00,VWS V14.01,2013-02-20 12:45:00,
2013-02-20 07:46:00,25.5,14.3,28.70,WNW,292,0.0,0.0,62,0.00,,---,0.00,VWS V14.01,2013-02-20 12:46:00,
2013-02-20 07:47:00,25.5,14.3,28.70,NNW,338,1.6,1.6,62,0.00,,---,0.00,VWS V14.01,2013-02-20 12:47:00,
2013-02-20 07:48:00,25.7,14.1,28.70,NNW,338,1.3,1.6,61,0.00,,---,0.00,VWS V14.01,2013-02-20 12:48:00,
2013-02-20 07:49:00,25.7,14.1,28.70,NNW,338,0.9,1.3,61,0.00,,---,0.00,VWS V14.01,2013-02-20 12:49:00,
2013-02-20 07:50:00,25.9,14.3,28.70,NNW,338,0.0,0.9,61,0.00,,---,0.00,VWS V14.01,2013-02-20 12:50:00,
2013-02-20 07:51:00,26.1,14.5,28.70,NNE,22,0.0,0.0,61,0.00,,---,0.00,VWS V14.01,2013-02-20 12:51:00,
2013-02-20 07:52:00,26.1,14.5,28.70,SSW,202,0.0,0.9,61,0.00,,---,0.00,VWS V14.01,2013-02-20 12:52:00,
2013-02-20 07:53:00,26.1,14.5,28.70,SSW,202,0.0,0.0,61,0.00,,---,0.00,VWS V14.01,2013-02-20 12:53:00,
2013-02-20 07:54:00,26.1,14.5,28.70,SSW,202,0.0,0.0,61,0.00,,---,0.00,VWS V14.01,2013-02-20 12:54:00,
2013-02-20 07:55:00,26.1,14.5,28.70,SSW,202,1.3,1.3,61,0.00,,---,0.00,VWS V14.01,2013-02-20 12:55:00,
2013-02-20 07:56:00,26.1,14.5,28.70,SSE,158,0.0,1.3,61,0.00,,---,0.00,VWS V14.01,2013-02-20 12:56:00,
2013-02-20 07:57:00,26.2,14.6,28.70,SSE,158,0.9,0.9,61,0.00,,---,0.00,VWS V14.01,2013-02-20 12:57:00,
2013-02-20 07:58:00,26.2,14.6,28.70,SSE,158,0.0,0.9,61,0.00,,---,0.00,VWS V14.01,2013-02-20 12:58:00,
2013-02-20 07:59:00,26.4,14.4,28.70,SSE,158,0.9,0.9,60,0.00,,---,0.00,VWS V14.01,2013-02-20 12:59:00,
2013-02-20 08:00:00,26.4,14.4,28.70,SSE,158,2.0,2.0,60,0.00,,---,0.00,VWS V14.01,2013-02-20 13:00:00,
2013-02-20 08:01:00,26.4,14.4,28.70,SSE,158,0.0,2.0,60,0.00,,---,0.00,VWS V14.01,2013-02-20 13:01:00,
2013-02-20 08:02:00,26.6,14.6,28.70,SSE,158,0.0,0.0,60,0.00,,---,0.00,VWS V14.01,2013-02-20 13:02:00,
2013-02-20 08:03:00,26.6,14.6,28.70,SSE,158,0.0,0.0,60,0.00,,---,0.00,VWS V14.01,2013-02-20 13:03:00,
2013-02-20 08:04:00,26.6,14.6,28.70,SSE,158,0.0,0.0,60,0.00,,---,0.00,VWS V14.01,2013-02-20 13:04:00,
2013-02-20 08:05:00,26.8,14.8,28.70,SSE,158,0.0,0.0,60,0.00,,---,0.00,VWS V14.01,2013-02-20 13:05:00,
2013-02-20 08:06:00,26.8,14.8,28.70,SSE,158,0.0,0.0,60,0.00,,---,0.00,VWS V14.01,2013-02-20 13:06:00,
2013-02-20 08:07:00,27.0,14.6,28.70,SSE,158,1.1,1.1,59,0.00,,---,0.00,VWS V14.01,2013-02-20 13:07:00,
2013-02-20 08:08:00,27.0,14.6,28.70,SSE,158,0.0,1.1,59,0.00,,---,0.00,VWS V14.01,2013-02-20 13:08:00,
2013-02-20 08:09:00,26.8,14.4,28.70,SSE,158,0.0,0.0,59,0.00,,---,0.00,VWS V14.01,2013-02-20 13:09:00,
2013-02-20 08:10:00,26.8,14.4,28.70,SSE,158,0.0,0.0,59,0.00,,---,0.00,VWS V14.01,2013-02-20 13:10:00,
2013-02-20 08:11:00,27.0,14.6,28.70,SSE,158,0.0,0.0,59,0.00,,---,0.00,VWS V14.01,2013-02-20 13:11:00,
2013-02-20 08:12:00,27.0,14.6,28.70,SSE,158,0.0,0.0,59,0.00,,---,0.00,VWS V14.01,2013-02-20 13:12:00,
2013-02-20 08:13:00,27.0,14.6,28.70,SSE,158,0.0,0.0,59,0.00,,---,0.00,VWS V14.01,2013-02-20 13:13:00,
2013-02-20 08:14:00,27.0,14.6,28.70,SSE,158,0.0,0.0,59,0.00,,---,0.00,VWS V14.01,2013-02-20 13:14:00,
2013-02-20 08:15:00,27.0,14.6,28.70,SSE,158,1.3,1.3,59,0.00,,---,0.00,VWS V14.01,2013-02-20 13:15:00,
2013-02-20 08:16:00,27.1,14.7,28.70,SSE,158,0.0,1.3,59,0.00,,---,0.00,VWS V14.01,2013-02-20 13:16:00,
2013-02-20 08:17:00,27.1,14.7,28.70,SSE,158,0.0,0.0,59,0.00,,---,0.00,VWS V14.01,2013-02-20 13:17:00,
2013-02-20 08:18:00,27.3,14.9,28.70,SSE,158,0.0,0.0,59,0.00,,---,0.00,VWS V14.01,2013-02-20 13:18:00,
2013-02-20 08:19:00,27.3,14.9,28.70,SSE,158,0.0,0.0,59,0.00,,---,0.00,VWS V14.01,2013-02-20 13:19:00,
2013-02-20 08:20:00,27.3,14.9,28.70,SSW,202,0.9,0.9,59,0.00,,---,0.00,VWS V14.01,2013-02-20 13:20:00,
2013-02-20 08:21:00,27.3,14.5,28.70,SSW,202,0.0,0.9,58,0.00,,---,0.00,VWS V14.01,2013-02-20 13:21:00,
2013-02-20 08:22:00,27.3,14.5,28.70,WSW,248,2.7,2.7,58,0.00,,---,0.00,VWS V14.01,2013-02-20 13:22:00,
2013-02-20 08:23:00,27.5,14.3,28.70,WNW,292,0.0,2.7,57,0.00,,---,0.00,VWS V14.01,2013-02-20 13:23:00,
2013-02-20 08:24:00,27.5,14.3,28.70,NNW,338,2.2,2.2,57,0.00,,---,0.00,VWS V14.01,2013-02-20 13:24:00,
2013-02-20 08:25:00,27.5,13.9,28.70,NNW,338,0.0,2.2,56,0.00,,---,0.00,VWS V14.01,2013-02-20 13:25:00,
2013-02-20 08:26:00,27.5,13.9,28.70,WNW,292,2.0,2.0,56,0.00,,---,0.00,VWS V14.01,2013-02-20 13:26:00,
2013-02-20 08:27:00,27.7,14.0,28.70,WNW,292,1.1,2.0,56,0.00,,---,0.00,VWS V14.01,2013-02-20 13:27:00,
2013-02-20 08:28:00,27.9,14.2,28.70,SSW,202,2.0,2.0,56,0.00,,---,0.00,VWS V14.01,2013-02-20 13:28:00,
2013-02-20 08:29:00,27.9,14.2,28.70,SSW,202,0.0,2.0,56,0.00,,---,0.00,VWS V14.01,2013-02-20 13:29:00,
2013-02-20 08:30:00,27.9,14.2,28.70,SSW,202,0.0,0.0,56,0.00,,---,0.00,VWS V14.01,2013-02-20 13:30:00,
2013-02-20 08:31:00,27.9,14.2,28.70,SSW,202,0.9,0.9,56,0.00,,---,0.00,VWS V14.01,2013-02-20 13:31:00,
2013-02-20 08:32:00,28.0,14.8,28.70,SSW,202,0.9,0.9,57,0.00,,---,0.00,VWS V14.01,2013-02-20 13:32:00,
2013-02-20 08:33:00,28.0,14.8,28.70,SSW,202,1.3,1.3,57,0.00,,---,0.00,VWS V14.01,2013-02-20 13:33:00,
2013-02-20 08:34:00,28.4,15.1,28.70,SSW,202,1.3,1.3,57,0.00,,---,0.00,VWS V14.01,2013-02-20 13:34:00,
2013-02-20 08:35:00,28.4,15.1,28.70,ESE,112,1.1,2.5,57,0.00,,---,0.00,VWS V14.01,2013-02-20 13:35:00,
2013-02-20 08:36:00,28.4,15.1,28.70,ESE,112,0.0,1.1,57,0.00,,---,0.00,VWS V14.01,2013-02-20 13:36:00,
2013-02-20 08:37:00,28.4,15.1,28.70,ESE,112,0.0,0.0,57,0.00,,---,0.00,VWS V14.01,2013-02-20 13:37:00,
2013-02-20 08:38:00,28.6,14.9,28.70,ESE,112,1.1,1.1,56,0.00,,---,0.00,VWS V14.01,2013-02-20 13:38:00,
2013-02-20 08:39:00,28.9,15.2,28.70,ESE,112,1.6,1.6,56,0.00,,---,0.00,VWS V14.01,2013-02-20 13:39:00,
2013-02-20 08:40:00,28.9,15.2,28.70,SSE,158,1.1,1.6,56,0.00,,---,0.00,VWS V14.01,2013-02-20 13:40:00,
2013-02-20 08:41:00,29.1,15.4,28.70,SSW,202,0.0,1.1,56,0.00,,---,0.00,VWS V14.01,2013-02-20 13:41:00,
2013-02-20 08:42:00,28.9,14.8,28.70,SSW,202,0.0,0.0,55,0.00,,---,0.00,VWS V14.01,2013-02-20 13:42:00,
2013-02-20 08:43:00,28.9,14.8,28.70,SSW,202,1.1,1.1,55,0.00,,---,0.00,VWS V14.01,2013-02-20 13:43:00,
2013-02-20 08:44:00,28.9,14.8,28.70,SSW,202,0.0,1.1,55,0.00,,---,0.00,VWS V14.01,2013-02-20 13:44:00,
2013-02-20 08:45:00,29.3,15.1,28.70,NNE,22,1.1,2.9,55,0.00,,---,0.00,VWS V14.01,2013-02-20 13:45:00,
2013-02-20 08:46:00,29.1,14.6,28.70,NNE,22,1.1,1.1,54,0.00,,---,0.00,VWS V14.01,2013-02-20 13:46:00,
2013-02-20 08:47:00,29.1,14.6,28.70,ENE,68,0.9,1.1,54,0.00,,---,0.00,VWS V14.01,2013-02-20 13:47:00,
2013-02-20 08:48:00,28.9,14.0,28.70,WNW,292,2.7,2.7,53,0.00,,---,0.00,VWS V14.01,2013-02-20 13:48:00,
2013-02-20 08:49:00,28.9,14.0,28.70,WNW,292,2.2,2.7,53,0.00,,---,0.00,VWS V14.01,2013-02-20 13:49:00,
2013-02-20 08:50:00,28.9,14.0,28.70,SSW,202,0.0,2.2,53,0.00,,---,0.00,VWS V14.01,2013-02-20 13:50:00,
2013-02-20 08:51:00,28.9,14.0,28.70,SSW,202,0.0,0.0,53,0.00,,---,0.00,VWS V14.01,2013-02-20 13:51:00,
2013-02-20 08:52:00,28.8,13.4,28.70,WNW,292,3.4,3.4,52,0.00,,---,0.00,VWS V14.01,2013-02-20 13:52:00,
2013-02-20 08:53:00,28.8,13.4,28.70,WNW,292,3.4,3.4,52,0.00,,---,0.00,VWS V14.01,2013-02-20 13:53:00,
2013-02-20 08:54:00,28.8,13.4,28.70,NNW,338,4.0,4.0,52,0.00,,---,0.00,VWS V14.01,2013-02-20 13:54:00,
2013-02-20 08:55:00,28.8,13.4,28.70,West,270,0.9,2.0,52,0.00,,---,0.00,VWS V14.01,2013-02-20 13:55:00,
2013-02-20 08:56:00,28.8,13.4,28.70,NNW,338,2.2,2.2,52,0.00,,---,0.00,VWS V14.01,2013-02-20 13:56:00,
2013-02-20 08:57:00,28.6,13.2,28.70,NNW,338,0.0,2.2,52,0.00,,---,0.00,VWS V14.01,2013-02-20 13:57:00,
2013-02-20 08:58:00,28.6,13.2,28.70,WNW,292,2.0,2.0,52,0.00,,---,0.00,VWS V14.01,2013-02-20 13:58:00,
2013-02-20 08:59:00,28.6,12.8,28.70,NNW,338,2.7,2.7,51,0.00,,---,0.00,VWS V14.01,2013-02-20 13:59:00,
2013-02-20 09:00:00,28.6,12.8,28.70,WSW,248,1.6,2.7,51,0.00,,---,0.00,VWS V14.01,2013-02-20 14:00:00,
2013-02-20 09:01:00,28.6,12.3,28.70,West,270,3.1,3.1,50,0.00,,---,0.00,VWS V14.01,2013-02-20 14:01:00,
2013-02-20 09:02:00,28.4,11.7,28.70,WNW,292,1.6,3.1,49,0.00,,---,0.00,VWS V14.01,2013-02-20 14:02:00,
2013-02-20 09:03:00,28.6,11.9,28.70,WNW,292,1.6,1.6,49,0.00,,---,0.00,VWS V14.01,2013-02-20 14:03:00,
2013-02-20 09:04:00,28.6,11.9,28.70,WNW,292,3.1,3.1,49,0.00,,---,0.00,VWS V14.01,2013-02-20 14:04:00,
2013-02-20 09:05:00,28.6,11.9,28.70,WSW,248,2.7,3.1,49,0.00,,---,0.00,VWS V14.01,2013-02-20 14:05:00,
2013-02-20 09:06:00,28.6,11.9,28.70,West,270,1.3,2.7,49,0.00,,---,0.00,VWS V14.01,2013-02-20 14:06:00,
2013-02-20 09:07:00,28.6,11.9,28.70,West,270,1.3,1.3,49,0.00,,---,0.00,VWS V14.01,2013-02-20 14:07:00,
2013-02-20 09:08:00,28.6,11.9,28.70,West,270,2.9,2.9,49,0.00,,---,0.00,VWS V14.01,2013-02-20 14:08:00,
2013-02-20 09:09:00,28.6,12.3,28.70,West,270,2.0,2.9,50,0.00,,---,0.00,VWS V14.01,2013-02-20 14:09:00,
2013-02-20 09:10:00,28.6,12.3,28.70,NNE,22,2.7,2.7,50,0.00,,---,0.00,VWS V14.01,2013-02-20 14:10:00,
2013-02-20 09:11:00,28.6,11.9,28.70,WNW,292,1.6,2.7,49,0.00,,---,0.00,VWS V14.01,2013-02-20 14:11:00,
2013-02-20 09:12:00,28.6,11.9,28.70,WNW,292,0.0,1.6,49,0.00,,---,0.00,VWS V14.01,2013-02-20 14:12:00,
2013-02-20 09:13:00,28.6,11.9,28.70,WNW,292,0.0,0.0,49,0.00,,---,0.00,VWS V14.01,2013-02-20 14:13:00,
2013-02-20 09:14:00,28.6,11.9,28.70,WNW,292,4.3,4.3,49,0.00,,---,0.00,VWS V14.01,2013-02-20 14:14:00,
2013-02-20 09:15:00,28.8,12.0,28.70,WNW,292,2.7,4.3,49,0.00,,---,0.00,VWS V14.01,2013-02-20 14:15:00,
2013-02-20 09:16:00,28.8,12.0,28.70,WNW,292,2.7,2.7,49,0.00,,---,0.00,VWS V14.01,2013-02-20 14:16:00,
2013-02-20 09:17:00,28.8,12.0,28.70,WNW,292,2.5,2.7,49,0.00,,---,0.00,VWS V14.01,2013-02-20 14:17:00,
2013-02-20 09:18:00,28.8,12.0,28.70,NNW,338,2.5,2.5,49,0.00,,---,0.00,VWS V14.01,2013-02-20 14:18:00,
2013-02-20 09:19:00,28.8,12.0,28.70,NNW,338,2.5,2.5,49,0.00,,---,0.00,VWS V14.01,2013-02-20 14:19:00,
2013-02-20 09:20:00,28.9,11.7,28.70,NW,315,2.9,2.9,48,0.00,,---,0.00,VWS V14.01,2013-02-20 14:20:00,
2013-02-20 09:21:00,28.9,11.7,28.70,NW,315,0.9,2.9,48,0.00,,---,0.00,VWS V14.01,2013-02-20 14:21:00,
2013-02-20 09:22:00,28.9,12.2,28.70,NW,315,2.0,2.0,49,0.00,,---,0.00,VWS V14.01,2013-02-20 14:22:00,
2013-02-20 09:23:00,29.1,12.4,28.70,WNW,292,2.0,2.0,49,0.00,,---,0.00,VWS V14.01,2013-02-20 14:23:00,
2013-02-20 09:24:00,29.1,12.4,28.70,WNW,292,2.0,2.0,49,0.00,,---,0.00,VWS V14.01,2013-02-20 14:24:00,
2013-02-20 09:25:00,29.1,11.9,28.70,WNW,292,2.5,2.5,48,0.00,,---,0.00,VWS V14.01,2013-02-20 14:25:00,
2013-02-20 09:26:00,29.1,11.9,28.73,NE,45,2.2,2.5,48,0.00,,---,0.00,VWS V14.01,2013-02-20 14:26:00,
2013-02-20 09:27:00,29.1,11.9,28.73,WNW,292,1.1,2.2,48,0.00,,---,0.00,VWS V14.01,2013-02-20 14:27:00,
2013-02-20 09:28:00,29.3,12.1,28.73,West,270,3.6,3.6,48,0.00,,---,0.00,VWS V14.01,2013-02-20 14:28:00,
2013-02-20 09:29:00,29.3,12.1,28.73,WNW,292,2.5,3.6,48,0.00,,---,0.00,VWS V14.01,2013-02-20 14:29:00,
2013-02-20 09:30:00,29.3,11.6,28.73,WNW,292,2.5,2.5,47,0.00,,---,0.00,VWS V14.01,2013-02-20 14:30:00,
2013-02-20 09:31:00,29.3,11.6,28.73,WNW,292,2.0,2.5,47,0.00,,---,0.00,VWS V14.01,2013-02-20 14:31:00,
2013-02-20 09:32:00,29.5,11.8,28.73,WNW,292,1.3,2.0,47,0.00,,---,0.00,VWS V14.01,2013-02-20 14:32:00,
2013-02-20 09:33:00,29.8,12.6,28.73,ENE,68,0.0,0.0,48,0.00,,---,0.00,VWS V14.01,2013-02-20 14:33:00,
2013-02-20 09:34:00,29.8,12.6,28.73,WNW,292,2.2,2.2,48,0.00,,---,0.00,VWS V14.01,2013-02-20 14:34:00,
2013-02-20 09:35:00,29.8,12.6,28.73,NNW,338,1.1,2.2,48,0.00,,---,0.00,VWS V14.01,2013-02-20 14:35:00,
2013-02-20 09:36:00,29.8,12.1,28.73,NW,315,1.6,1.6,47,0.00,,---,0.00,VWS V14.01,2013-02-20 14:36:00,
2013-02-20 09:37:00,29.8,12.1,28.73,SSE,158,0.9,1.6,47,0.00,,---,0.00,VWS V14.01,2013-02-20 14:37:00,
2013-02-20 09:38:00,29.8,12.1,28.73,SSE,158,0.9,0.9,47,0.00,,---,0.00,VWS V14.01,2013-02-20 14:38:00,
2013-02-20 09:39:00,30.2,12.4,28.73,South,180,2.0,2.0,47,0.00,,---,0.00,VWS V14.01,2013-02-20 14:39:00,
2013-02-20 09:40:00,30.2,12.4,28.73,WNW,292,0.0,3.4,47,0.00,,---,0.00,VWS V14.01,2013-02-20 14:40:00,
2013-02-20 09:41:00,30.2,12.4,28.70,WNW,292,0.0,0.0,47,0.00,,---,0.00,VWS V14.01,2013-02-20 14:41:00,
2013-02-20 09:42:00,30.2,12.4,28.70,West,270,1.3,1.3,47,0.00,,---,0.00,VWS V14.01,2013-02-20 14:42:00,
2013-02-20 09:43:00,30.2,12.4,28.70,WNW,292,2.2,2.2,47,0.00,,---,0.00,VWS V14.01,2013-02-20 14:43:00,
2013-02-20 09:44:00,30.4,12.6,28.70,WNW,292,2.2,2.2,47,0.00,,---,0.00,VWS V14.01,2013-02-20 14:44:00,
2013-02-20 09:45:00,30.4,12.6,28.70,SW,225,0.0,2.2,47,0.00,,---,0.00,VWS V14.01,2013-02-20 14:45:00,
2013-02-20 09:46:00,30.7,12.9,28.70,SW,225,0.0,0.0,47,0.00,,---,0.00,VWS V14.01,2013-02-20 14:46:00,
2013-02-20 09:47:00,30.7,12.9,28.70,WNW,292,3.6,3.6,47,0.00,,---,0.00,VWS V14.01,2013-02-20 14:47:00,
2013-02-20 09:48:00,30.9,12.6,28.70,WNW,292,2.5,2.5,46,0.00,,---,0.00,VWS V14.01,2013-02-20 14:48:00,
2013-02-20 09:49:00,30.9,12.6,28.70,WNW,292,2.5,2.5,46,0.00,,---,0.00,VWS V14.01,2013-02-20 14:49:00,
2013-02-20 09:50:00,30.7,11.9,28.70,WNW,292,2.9,3.1,45,0.00,,---,0.00,VWS V14.01,2013-02-20 14:50:00,
2013-02-20 09:51:00,31.1,12.2,28.70,WNW,292,2.9,2.9,45,0.00,,---,0.00,VWS V14.01,2013-02-20 14:51:00,
2013-02-20 09:52:00,31.1,12.2,28.70,WNW,292,2.9,2.9,45,0.00,,---,0.00,VWS V14.01,2013-02-20 14:52:00,
2013-02-20 09:53:00,31.1,12.8,28.70,WNW,292,1.1,3.1,46,0.00,,---,0.00,VWS V14.01,2013-02-20 14:53:00,
2013-02-20 09:54:00,31.1,12.8,28.70,SW,225,1.3,3.1,46,0.00,,---,0.00,VWS V14.01,2013-02-20 14:54:00,
2013-02-20 09:55:00,31.1,11.8,28.70,WNW,292,1.6,1.6,44,0.00,,---,0.00,VWS V14.01,2013-02-20 14:55:00,
2013-02-20 09:56:00,31.1,11.8,28.70,WNW,292,0.0,1.6,44,0.00,,---,0.00,VWS V14.01,2013-02-20 14:56:00,
2013-02-20 09:57:00,31.3,12.4,28.70,West,270,2.0,2.0,45,0.00,,---,0.00,VWS V14.01,2013-02-20 14:57:00,
2013-02-20 09:58:00,31.1,12.2,28.70,WNW,292,2.2,2.2,45,0.00,,---,0.00,VWS V14.01,2013-02-20 14:58:00,
2013-02-20 09:59:00,31.1,12.2,28.70,WNW,292,0.0,2.2,45,0.00,,---,0.00,VWS V14.01,2013-02-20 14:59:00,
2013-02-20 10:00:00,31.1,12.2,28.70,WNW,292,1.6,1.6,45,0.00,,---,0.00,VWS V14.01,2013-02-20 15:00:00,
2013-02-20 10:01:00,31.1,11.8,28.70,WNW,292,3.6,3.6,44,0.00,,---,0.00,VWS V14.01,2013-02-20 15:01:00,
2013-02-20 10:02:00,30.9,11.6,28.70,WNW,292,3.4,4.9,44,0.00,,---,0.00,VWS V14.01,2013-02-20 15:02:00,
2013-02-20 10:03:00,30.7,11.4,28.70,WNW,292,2.0,2.7,44,0.00,,---,0.00,VWS V14.01,2013-02-20 15:03:00,
2013-02-20 10:04:00,30.7,11.4,28.70,WNW,292,2.0,2.7,44,0.00,,---,0.00,VWS V14.01,2013-02-20 15:04:00,
2013-02-20 10:05:00,30.7,11.4,28.70,WNW,292,2.7,2.7,44,0.00,,---,0.00,VWS V14.01,2013-02-20 15:05:00,
2013-02-20 10:06:00,30.7,11.4,28.70,WNW,292,2.0,2.7,44,0.00,,---,0.00,VWS V14.01,2013-02-20 15:06:00,
2013-02-20 10:07:00,30.7,10.9,28.70,WSW,248,1.6,2.0,43,0.00,,---,0.00,VWS V14.01,2013-02-20 15:07:00,
2013-02-20 10:08:00,30.7,10.9,28.70,NNW,338,1.6,1.6,43,0.00,,---,0.00,VWS V14.01,2013-02-20 15:08:00,
2013-02-20 10:09:00,30.7,10.9,28.70,NNW,338,1.6,1.6,43,0.00,,---,0.00,VWS V14.01,2013-02-20 15:09:00,
2013-02-20 10:10:00,30.9,11.1,28.70,NNW,338,2.9,2.9,43,0.00,,---,0.00,VWS V14.01,2013-02-20 15:10:00,
2013-02-20 10:11:00,30.7,10.9,28.73,NNW,338,2.9,2.9,43,0.00,,---,0.00,VWS V14.01,2013-02-20 15:11:00,
2013-02-20 10:12:00,30.7,10.9,28.73,South,180,2.0,3.6,43,0.00,,---,0.00,VWS V14.01,2013-02-20 15:12:00,
2013-02-20 10:13:00,30.9,11.1,28.73,WSW,248,0.0,0.0,43,0.00,,---,0.00,VWS V14.01,2013-02-20 15:13:00,
2013-02-20 10:14:00,30.9,11.1,28.73,WNW,292,2.0,2.0,43,0.00,,---,0.00,VWS V14.01,2013-02-20 15:14:00,
2013-02-20 10:15:00,31.1,11.2,28.73,SE,135,2.9,3.4,43,0.00,,---,0.00,VWS V14.01,2013-02-20 15:15:00,
2013-02-20 10:16:00,30.7,10.9,28.73,SE,135,2.9,2.9,43,0.00,,---,0.00,VWS V14.01,2013-02-20 15:16:00,
2013-02-20 10:17:00,30.7,10.9,28.73,WNW,292,1.3,2.9,43,0.00,,---,0.00,VWS V14.01,2013-02-20 15:17:00,
2013-02-20 10:18:00,30.7,10.9,28.73,SSW,202,3.4,3.4,43,0.00,,---,0.00,VWS V14.01,2013-02-20 15:18:00,
2013-02-20 10:19:00,30.7,10.9,28.73,ENE,68,2.0,3.4,43,0.00,,---,0.00,VWS V14.01,2013-02-20 15:19:00,
2013-02-20 10:20:00,30.4,10.6,28.73,WNW,292,4.9,4.9,43,0.00,,---,0.00,VWS V14.01,2013-02-20 15:20:00,
2013-02-20 10:21:00,30.2,10.4,28.73,NW,315,1.6,4.9,43,0.00,,---,0.00,VWS V14.01,2013-02-20 15:21:00,
2013-02-20 10:22:00,30.2,10.4,28.73,WNW,292,4.3,4.3,43,0.00,,---,0.00,VWS V14.01,2013-02-20 15:22:00,
2013-02-20 10:23:00,30.0,10.2,28.73,WNW,292,3.1,3.1,43,0.00,,---,0.00,VWS V14.01,2013-02-20 15:23:00,
2013-02-20 10:24:00,30.0,10.2,28.73,WNW,292,1.6,3.1,43,0.00,,---,0.00,VWS V14.01,2013-02-20 15:24:00,
2013-02-20 10:25:00,30.0,10.2,28.73,WNW,292,1.6,1.6,43,0.00,,---,0.00,VWS V14.01,2013-02-20 15:25:00,
2013-02-20 10:26:00,30.0,10.2,28.73,West,270,0.0,2.9,43,0.00,,---,0.00,VWS V14.01,2013-02-20 15:26:00,
2013-02-20 10:27:00,29.8,10.1,28.73,West,270,2.5,2.5,43,0.00,,---,0.00,VWS V14.01,2013-02-20 15:27:00,
2013-02-20 10:28:00,30.0,10.2,28.73,ENE,68,3.4,3.4,43,0.00,,---,0.00,VWS V14.01,2013-02-20 15:28:00,
2013-02-20 10:29:00,30.0,10.2,28.73,NNW,338,1.3,3.4,43,0.00,,---,0.00,VWS V14.01,2013-02-20 15:29:00,
2013-02-20 10:30:00,30.0,10.2,28.73,NNW,338,1.3,1.3,43,0.00,,---,0.00,VWS V14.01,2013-02-20 15:30:00,
2013-02-20 10:31:00,29.8,10.1,28.73,SSW,202,1.6,1.6,43,0.00,,---,0.00,VWS V14.01,2013-02-20 15:31:00,
2013-02-20 10:32:00,30.0,10.2,28.73,SSW,202,1.6,1.6,43,0.00,,---,0.00,VWS V14.01,2013-02-20 15:32:00,
2013-02-20 10:33:00,30.0,10.2,28.73,NNW,338,2.0,2.0,43,0.00,,---,0.00,VWS V14.01,2013-02-20 15:33:00,
2013-02-20 10:34:00,30.2,10.4,28.73,WSW,248,4.9,4.9,43,0.00,,---,0.00,VWS V14.01,2013-02-20 15:34:00,
2013-02-20 10:35:00,30.2,10.4,28.73,WNW,292,3.6,4.9,43,0.00,,---,0.00,VWS V14.01,2013-02-20 15:35:00,
2013-02-20 10:36:00,30.2,10.4,28.73,WNW,292,6.0,6.0,43,0.00,,---,0.00,VWS V14.01,2013-02-20 15:36:00,
2013-02-20 10:37:00,30.4,10.6,28.73,WNW,292,2.0,6.0,43,0.00,,---,0.00,VWS V14.01,2013-02-20 15:37:00,
2013-02-20 10:38:00,30.4,10.6,28.73,WNW,292,3.4,3.4,43,0.00,,---,0.00,VWS V14.01,2013-02-20 15:38:00,
2013-02-20 10:39:00,30.4,10.6,28.73,NNE,22,1.1,3.4,43,0.00,,---,0.00,VWS V14.01,2013-02-20 15:39:00,
2013-02-20 10:40:00,30.4,10.6,28.73,WNW,292,2.9,2.9,43,0.00,,---,0.00,VWS V14.01,2013-02-20 15:40:00,
2013-02-20 10:41:00,30.6,10.7,28.73,West,270,2.0,3.8,43,0.00,,---,0.00,VWS V14.01,2013-02-20 15:41:00,
2013-02-20 10:42:00,30.6,10.7,28.73,West,270,2.0,2.0,43,0.00,,---,0.00,VWS V14.01,2013-02-20 15:42:00,
2013-02-20 10:43:00,30.6,10.2,28.73,WNW,292,3.8,3.8,42,0.00,,---,0.00,VWS V14.01,2013-02-20 15:43:00,
2013-02-20 10:44:00,30.4,10.1,28.73,WNW,292,3.8,3.8,42,0.00,,---,0.00,VWS V14.01,2013-02-20 15:44:00,
2013-02-20 10:45:00,30.4,10.1,28.73,WNW,292,3.1,5.4,42,0.00,,---,0.00,VWS V14.01,2013-02-20 15:45:00,
2013-02-20 10:46:00,30.4,10.1,28.73,WNW,292,3.1,3.1,42,0.00,,---,0.00,VWS V14.01,2013-02-20 15:46:00,
2013-02-20 10:47:00,30.6,10.2,28.73,NNW,338,4.3,4.3,42,0.00,,---,0.00,VWS V14.01,2013-02-20 15:47:00,
2013-02-20 10:48:00,30.6,10.2,28.73,SSW,202,1.3,1.3,42,0.00,,---,0.00,VWS V14.01,2013-02-20 15:48:00,
2013-02-20 10:49:00,30.6,10.2,28.73,WSW,248,3.4,3.4,42,0.00,,---,0.00,VWS V14.01,2013-02-20 15:49:00,
2013-02-20 10:50:00,31.1,10.7,28.73,NNW,338,2.5,3.4,42,0.00,,---,0.00,VWS V14.01,2013-02-20 15:50:00,
2013-02-20 10:51:00,31.1,10.7,28.73,NNW,338,4.0,6.5,42,0.00,,---,0.00,VWS V14.01,2013-02-20 15:51:00,
2013-02-20 10:52:00,30.9,10.5,28.73,WNW,292,3.8,4.0,42,0.00,,---,0.00,VWS V14.01,2013-02-20 15:52:00,
2013-02-20 10:53:00,30.9,10.5,28.73,NNW,338,3.1,3.8,42,0.00,,---,0.00,VWS V14.01,2013-02-20 15:53:00,
2013-02-20 10:54:00,30.9,10.5,28.73,West,270,3.8,3.8,42,0.00,,---,0.00,VWS V14.01,2013-02-20 15:54:00,
2013-02-20 10:55:00,30.7,10.4,28.73,WSW,248,6.5,6.5,42,0.00,,---,0.00,VWS V14.01,2013-02-20 15:55:00,
2013-02-20 10:56:00,30.7,10.4,28.73,West,270,4.0,6.5,42,0.00,,---,0.00,VWS V14.01,2013-02-20 15:56:00,
2013-02-20 10:57:00,30.7,10.4,28.73,West,270,2.5,4.0,42,0.00,,---,0.00,VWS V14.01,2013-02-20 15:57:00,
2013-02-20 10:58:00,31.3,10.9,28.73,West,270,2.2,2.2,42,0.00,,---,0.00,VWS V14.01,2013-02-20 15:58:00,
2013-02-20 10:59:00,31.3,10.9,28.73,WNW,292,2.5,2.5,42,0.00,,---,0.00,VWS V14.01,2013-02-20 15:59:00,
2013-02-20 11:00:00,31.1,10.7,28.73,WNW,292,6.5,6.5,42,0.00,,---,0.00,VWS V14.01,2013-02-20 16:00:00,
2013-02-20 11:01:00,31.1,10.7,28.73,WSW,248,6.0,6.5,42,0.00,,---,0.00,VWS V14.01,2013-02-20 16:01:00,
2013-02-20 11:02:00,31.1,10.7,28.73,WNW,292,7.2,7.2,42,0.00,,---,0.00,VWS V14.01,2013-02-20 16:02:00,
2013-02-20 11:03:00,31.1,10.7,28.73,WNW,292,4.3,7.2,42,0.00,,---,0.00,VWS V14.01,2013-02-20 16:03:00,
2013-02-20 11:05:00,31.1,10.7,28.73,WNW,292,2.9,9.8,42,0.00,,---,0.00,VWS V14.01,2013-02-20 16:05:00,
2013-02-20 11:06:00,31.1,10.7,28.73,WNW,292,2.5,6.0,42,0.00,,---,0.00,VWS V14.01,2013-02-20 16:06:00,
2013-02-20 11:07:00,31.1,10.7,28.73,WNW,292,2.5,2.5,42,0.00,,---,0.00,VWS V14.01,2013-02-20 16:07:00,
2013-02-20 11:08:00,31.3,10.9,28.73,NW,315,6.3,6.3,42,0.00,,---,0.00,VWS V14.01,2013-02-20 16:08:00,
2013-02-20 11:09:00,31.1,10.7,28.73,NW,315,6.3,6.3,42,0.00,,---,0.00,VWS V14.01,2013-02-20 16:09:00,
2013-02-20 11:10:00,31.1,10.7,28.73,NW,315,3.4,6.3,42,0.00,,---,0.00,VWS V14.01,2013-02-20 16:10:00,
2013-02-20 11:11:00,30.9,10.5,28.73,WNW,292,5.6,5.6,42,0.00,,---,0.00,VWS V14.01,2013-02-20 16:11:00,
2013-02-20 11:12:00,30.9,10.5,28.73,WNW,292,5.6,5.6,42,0.00,,---,0.00,VWS V14.01,2013-02-20 16:12:00,
2013-02-20 11:13:00,31.1,10.7,28.73,NW,315,6.3,6.3,42,0.00,,---,0.00,VWS V14.01,2013-02-20 16:13:00,
2013-02-20 11:14:00,31.1,10.7,28.73,WNW,292,4.9,6.3,42,0.00,,---,0.00,VWS V14.01,2013-02-20 16:14:00,
2013-02-20 11:15:00,31.1,10.2,28.73,WNW,292,3.4,4.9,41,0.00,,---,0.00,VWS V14.01,2013-02-20 16:15:00,
2013-02-20 11:16:00,31.3,10.3,28.73,WNW,292,8.1,8.1,41,0.00,,---,0.00,VWS V14.01,2013-02-20 16:16:00,
2013-02-20 11:17:00,31.3,10.3,28.73,WNW,292,3.8,8.1,41,0.00,,---,0.00,VWS V14.01,2013-02-20 16:17:00,
2013-02-20 11:18:00,31.1,10.2,28.73,WNW,292,3.6,3.6,41,0.00,,---,0.00,VWS V14.01,2013-02-20 16:18:00,
2013-02-20 11:19:00,31.1,10.2,28.73,West,270,2.0,3.6,41,0.00,,---,0.00,VWS V14.01,2013-02-20 16:19:00,
2013-02-20 11:20:00,31.8,11.4,28.73,West,270,3.4,3.4,42,0.00,,---,0.00,VWS V14.01,2013-02-20 16:20:00,
2013-02-20 11:21:00,31.6,10.6,28.73,WSW,248,2.7,3.4,41,0.00,,---,0.00,VWS V14.01,2013-02-20 16:21:00,
2013-02-20 11:22:00,31.6,10.6,28.73,WNW,292,1.3,2.7,41,0.00,,---,0.00,VWS V14.01,2013-02-20 16:22:00,
2013-02-20 11:23:00,31.5,10.5,28.73,WNW,292,4.9,8.5,41,0.00,,---,0.00,VWS V14.01,2013-02-20 16:23:00,
2013-02-20 11:24:00,31.5,10.5,28.73,West,270,5.6,8.5,41,0.00,,---,0.00,VWS V14.01,2013-02-20 16:24:00,
2013-02-20 11:25:00,31.3,10.3,28.73,West,270,5.6,5.6,41,0.00,,---,0.00,VWS V14.01,2013-02-20 16:25:00,
2013-02-20 11:26:00,31.3,10.3,28.73,NW,315,5.4,5.6,41,0.00,,---,0.00,VWS V14.01,2013-02-20 16:26:00,
2013-02-20 11:27:00,31.1,10.2,28.73,West,270,4.0,5.4,41,0.00,,---,0.00,VWS V14.01,2013-02-20 16:27:00,
2013-02-20 11:28:00,31.1,10.2,28.73,ENE,68,3.4,3.4,41,0.00,,---,0.00,VWS V14.01,2013-02-20 16:28:00,
2013-02-20 11:29:00,31.1,10.2,28.73,ENE,68,3.4,3.4,41,0.00,,---,0.00,VWS V14.01,2013-02-20 16:29:00,
2013-02-20 11:30:00,31.1,10.2,28.73,WNW,292,2.0,3.4,41,0.00,,---,0.00,VWS V14.01,2013-02-20 16:30:00,
2013-02-20 11:31:00,31.1,10.2,28.73,NW,315,5.4,7.6,41,0.00,,---,0.00,VWS V14.01,2013-02-20 16:31:00,
2013-02-20 11:32:00,31.1,10.2,28.73,NW,315,5.4,5.4,41,0.00,,---,0.00,VWS V14.01,2013-02-20 16:32:00,
2013-02-20 11:33:00,31.1,10.2,28.73,NW,315,4.9,4.9,41,0.00,,---,0.00,VWS V14.01,2013-02-20 16:33:00,
2013-02-20 11:38:00,30.9,10.0,28.73,WNW,292,6.0,6.0,41,0.00,,---,0.00,VWS V14.01,2013-02-20 16:38:00,
2013-02-20 11:43:00,31.1,10.2,28.73,WNW,292,5.4,5.4,41,0.00,,---,0.00,VWS V14.01,2013-02-20 16:43:00,
2013-02-20 11:48:00,30.7,9.8,28.73,WNW,292,5.4,5.4,41,0.00,,---,0.00,VWS V14.01,2013-02-20 16:48:00,
2013-02-20 11:53:00,30.2,9.4,28.73,WSW,248,7.4,7.4,41,0.00,,---,0.00,VWS V14.01,2013-02-20 16:53:00,
2013-02-20 11:58:00,30.6,9.7,28.73,WSW,248,6.9,6.9,41,0.00,,---,0.00,VWS V14.01,2013-02-20 16:58:00,
2013-02-20 12:03:00,30.2,9.4,28.73,WNW,292,8.1,8.7,41,0.00,,---,0.00,VWS V14.01,2013-02-20 17:03:00,
2013-02-20 12:08:00,30.0,9.2,28.73,WNW,292,7.4,7.4,41,0.00,,---,0.00,VWS V14.01,2013-02-20 17:08:00,
2013-02-20 12:13:00,30.4,9.5,28.73,WSW,248,5.8,5.8,41,0.00,,---,0.00,VWS V14.01,2013-02-20 17:13:00,
2013-02-20 12:18:00,30.2,9.4,28.73,WNW,292,4.3,6.5,41,0.00,,---,0.00,VWS V14.01,2013-02-20 17:18:00,
2013-02-20 12:23:00,30.2,9.4,28.73,WNW,292,5.8,5.8,41,0.00,,---,0.00,VWS V14.01,2013-02-20 17:23:00,
2013-02-20 12:28:00,30.4,9.5,28.73,WSW,248,5.6,8.7,41,0.00,,---,0.00,VWS V14.01,2013-02-20 17:28:00,
2013-02-20 12:33:00,29.8,9.0,28.73,SSW,202,3.8,3.8,41,0.00,,---,0.00,VWS V14.01,2013-02-20 17:33:00,
2013-02-20 12:38:00,29.8,9.0,28.73,WNW,292,3.1,3.1,41,0.00,,---,0.00,VWS V14.01,2013-02-20 17:38:00,
2013-02-20 12:43:00,29.8,9.0,28.73,WSW,248,3.8,3.8,41,0.00,,---,0.00,VWS V14.01,2013-02-20 17:43:00,
2013-02-20 12:48:00,29.5,8.7,28.73,SW,225,6.5,6.5,41,0.00,,---,0.00,VWS V14.01,2013-02-20 17:48:00,
2013-02-20 12:53:00,29.1,8.4,28.73,West,270,8.1,8.1,41,0.00,,---,0.00,VWS V14.01,2013-02-20 17:53:00,
2013-02-20 12:58:00,29.5,8.7,28.73,WNW,292,4.7,4.7,41,0.00,,---,0.00,VWS V14.01,2013-02-20 17:58:00,
2013-02-20 13:03:00,30.0,9.2,28.73,SSW,202,2.5,2.5,41,0.00,,---,0.00,VWS V14.01,2013-02-20 18:03:00,
2013-02-20 13:08:00,30.0,9.2,28.73,SW,225,2.7,2.7,41,0.00,,---,0.00,VWS V14.01,2013-02-20 18:08:00,
2013-02-20 13:13:00,29.8,9.0,28.73,East,90,2.5,4.0,41,0.00,,---,0.00,VWS V14.01,2013-02-20 18:13:00,
2013-02-20 13:18:00,29.8,9.0,28.73,WNW,292,4.9,4.9,41,0.00,,---,0.00,VWS V14.01,2013-02-20 18:18:00,
2013-02-20 13:23:00,29.7,8.9,28.73,WNW,292,4.0,4.0,41,0.00,,---,0.00,VWS V14.01,2013-02-20 18:23:00,
2013-02-20 13:28:00,29.3,8.5,28.73,SSW,202,4.7,4.7,41,0.00,,---,0.00,VWS V14.01,2013-02-20 18:28:00,
2013-02-20 13:33:00,28.9,8.2,28.73,WSW,248,7.8,7.8,41,0.00,,---,0.00,VWS V14.01,2013-02-20 18:33:00,
2013-02-20 13:38:00,29.3,8.5,28.73,West,270,4.3,4.3,41,0.00,,---,0.00,VWS V14.01,2013-02-20 18:38:00,
2013-02-20 13:43:00,28.9,8.2,28.73,NNW,338,6.3,6.3,41,0.00,,---,0.00,VWS V14.01,2013-02-20 18:43:00,
2013-02-20 13:48:00,29.5,8.7,28.73,WNW,292,4.9,4.9,41,0.00,,---,0.00,VWS V14.01,2013-02-20 18:48:00,
2013-02-20 13:53:00,29.3,8.5,28.73,WSW,248,3.1,4.5,41,0.00,,---,0.00,VWS V14.01,2013-02-20 18:53:00,
2013-02-20 13:58:00,29.1,8.4,28.70,West,270,2.7,4.0,41,0.00,,---,0.00,VWS V14.01,2013-02-20 18:58:00,
2013-02-20 14:03:00,28.6,7.9,28.70,WSW,248,3.6,6.5,41,0.00,,---,0.00,VWS V14.01,2013-02-20 19:03:00,
2013-02-20 14:08:00,28.8,8.0,28.70,WSW,248,6.0,6.0,41,0.00,,---,0.00,VWS V14.01,2013-02-20 19:08:00,
2013-02-20 14:13:00,28.4,8.2,28.70,West,270,2.5,5.6,42,0.00,,---,0.00,VWS V14.01,2013-02-20 19:13:00,
2013-02-20 14:18:00,28.6,7.9,28.70,North,0,2.9,2.9,41,0.00,,---,0.00,VWS V14.01,2013-02-20 19:18:00,
2013-02-20 14:23:00,28.4,8.2,28.70,NNW,338,12.1,12.1,42,0.00,,---,0.00,VWS V14.01,2013-02-20 19:23:00,
2013-02-20 14:28:00,28.4,8.2,28.73,SSW,202,2.0,2.0,42,0.00,,---,0.00,VWS V14.01,2013-02-20 19:28:00,
2013-02-20 14:33:00,28.2,8.1,28.73,NNW,338,2.9,3.1,42,0.00,,---,0.00,VWS V14.01,2013-02-20 19:33:00,
2013-02-20 14:38:00,28.0,8.4,28.73,WNW,292,3.8,3.8,43,0.00,,---,0.00,VWS V14.01,2013-02-20 19:38:00,
2013-02-20 14:43:00,28.0,8.4,28.73,West,270,2.7,3.8,43,0.00,,---,0.00,VWS V14.01,2013-02-20 19:43:00,
2013-02-20 14:48:00,27.9,8.3,28.73,West,270,2.5,3.4,43,0.00,,---,0.00,VWS V14.01,2013-02-20 19:48:00,
2013-02-20 14:53:00,28.0,8.9,28.73,NNW,338,3.1,3.8,44,0.00,,---,0.00,VWS V14.01,2013-02-20 19:53:00,
2013-02-20 14:58:00,27.9,8.8,28.73,WSW,248,3.6,3.6,44,0.00,,---,0.00,VWS V14.01,2013-02-20 19:58:00,
2013-02-20 15:03:00,28.0,8.9,28.73,NW,315,3.8,3.8,44,0.00,,---,0.00,VWS V14.01,2013-02-20 20:03:00,
2013-02-20 15:08:00,27.9,8.8,28.73,WSW,248,4.3,4.3,44,0.00,,---,0.00,VWS V14.01,2013-02-20 20:08:00,
2013-02-20 15:13:00,27.5,8.5,28.73,WNW,292,4.0,4.0,44,0.00,,---,0.00,VWS V14.01,2013-02-20 20:13:00,
2013-02-20 15:18:00,27.3,8.8,28.73,WSW,248,3.8,3.8,45,0.00,,---,0.00,VWS V14.01,2013-02-20 20:18:00,
2013-02-20 15:23:00,27.7,9.1,28.73,NNW,338,2.0,2.0,45,0.00,,---,0.00,VWS V14.01,2013-02-20 20:23:00,
2013-02-20 15:28:00,27.9,9.3,28.73,West,270,3.8,4.9,45,0.00,,---,0.00,VWS V14.01,2013-02-20 20:28:00,
2013-02-20 15:33:00,27.9,9.3,28.73,WNW,292,2.5,2.9,45,0.00,,---,0.00,VWS V14.01,2013-02-20 20:33:00,
2013-02-20 15:38:00,27.5,9.0,28.73,WNW,292,2.7,2.9,45,0.00,,---,0.00,VWS V14.01,2013-02-20 20:38:00,
2013-02-20 15:43:00,27.1,8.6,28.73,WNW,292,2.7,2.7,45,0.00,,---,0.00,VWS V14.01,2013-02-20 20:43:00,
2013-02-20 15:48:00,27.0,8.5,28.73,SSW,202,2.5,2.7,45,0.00,,---,0.00,VWS V14.01,2013-02-20 20:48:00,
2013-02-20 15:53:00,26.4,8.5,28.73,WNW,292,3.1,3.1,46,0.00,,---,0.00,VWS V14.01,2013-02-20 20:53:00,
2013-02-20 15:58:00,26.4,8.9,28.76,NW,315,2.9,2.9,47,0.00,,---,0.00,VWS V14.01,2013-02-20 20:58:00,
2013-02-20 16:02:00,26.6,9.1,28.76,West,270,3.4,3.4,47,0.00,,---,0.00,VWS V14.01,2013-02-20 21:02:00,
2013-02-20 16:07:00,26.6,9.1,28.76,WNW,292,3.1,3.1,47,0.00,,---,0.00,VWS V14.01,2013-02-20 21:07:00,
2013-02-20 16:12:00,26.4,9.4,28.73,West,270,2.0,2.7,48,0.00,,---,0.00,VWS V14.01,2013-02-20 21:12:00,
2013-02-20 16:17:00,26.6,9.6,28.73,West,270,2.2,2.2,48,0.00,,---,0.00,VWS V14.01,2013-02-20 21:17:00,
2013-02-20 16:22:00,26.2,8.8,28.73,WNW,292,1.3,1.3,47,0.00,,---,0.00,VWS V14.01,2013-02-20 21:22:00,
2013-02-20 16:27:00,26.1,8.6,28.73,WNW,292,6.5,6.5,47,0.00,,---,0.00,VWS V14.01,2013-02-20 21:27:00,
2013-02-20 16:32:00,25.9,8.4,28.73,WNW,292,4.0,5.4,47,0.00,,---,0.00,VWS V14.01,2013-02-20 21:32:00,
2013-02-20 16:37:00,25.7,8.3,28.73,West,270,2.7,2.7,47,0.00,,---,0.00,VWS V14.01,2013-02-20 21:37:00,
2013-02-20 16:42:00,25.7,8.3,28.76,WNW,292,2.0,2.0,47,0.00,,---,0.00,VWS V14.01,2013-02-20 21:42:00,
2013-02-20 16:47:00,25.5,8.1,28.76,NNW,338,0.0,0.0,47,0.00,,---,0.00,VWS V14.01,2013-02-20 21:47:00,
2013-02-20 16:52:00,25.3,7.5,28.76,WNW,292,3.1,3.1,46,0.00,,---,0.00,VWS V14.01,2013-02-20 21:52:00,
2013-02-20 16:57:00,25.3,7.5,28.76,NNW,338,1.3,2.9,46,0.00,,---,0.00,VWS V14.01,2013-02-20 21:57:00,
2013-02-20 17:02:00,25.2,7.3,28.76,West,270,4.5,4.5,46,0.00,,---,0.00,VWS V14.01,2013-02-20 22:02:00,
2013-02-20 17:07:00,25.0,7.1,28.76,NW,315,3.1,3.1,46,0.00,,---,0.00,VWS V14.01,2013-02-20 22:07:00,
2013-02-20 17:12:00,25.0,7.1,28.76,WNW,292,2.2,2.2,46,0.00,,---,0.00,VWS V14.01,2013-02-20 22:12:00,
2013-02-20 17:17:00,24.8,7.0,28.76,NW,315,1.1,3.1,46,0.00,,---,0.00,VWS V14.01,2013-02-20 22:17:00,
2013-02-20 17:22:00,24.6,6.8,28.76,WSW,248,2.5,2.5,46,0.00,,---,0.00,VWS V14.01,2013-02-20 22:22:00,
2013-02-20 17:27:00,24.4,7.1,28.76,NNW,338,2.7,2.7,47,0.00,,---,0.00,VWS V14.01,2013-02-20 22:27:00,
2013-02-20 17:32:00,24.4,7.1,28.76,WSW,248,0.9,0.9,47,0.00,,---,0.00,VWS V14.01,2013-02-20 22:32:00,
2013-02-20 17:37:00,24.3,6.9,28.76,WNW,292,2.2,2.2,47,0.00,,---,0.00,VWS V14.01,2013-02-20 22:37:00,
2013-02-20 17:42:00,24.1,6.8,28.76,ENE,68,1.3,1.6,47,0.00,,---,0.00,VWS V14.01,2013-02-20 22:42:00,
2013-02-20 17:47:00,23.9,7.1,28.76,NW,315,4.3,4.3,48,0.00,,---,0.00,VWS V14.01,2013-02-20 22:47:00,
2013-02-20 17:52:00,23.9,7.1,28.76,NNW,338,0.0,0.0,48,0.00,,---,0.00,VWS V14.01,2013-02-20 22:52:00,
2013-02-20 17:57:00,23.7,6.9,28.76,WNW,292,3.4,3.6,48,0.00,,---,0.00,VWS V14.01,2013-02-20 22:57:00,
2013-02-20 18:02:00,23.7,7.8,28.76,WSW,248,2.7,2.7,50,0.00,,---,0.00,VWS V14.01,2013-02-20 23:02:00,
2013-02-20 18:07:00,23.5,7.7,28.76,WNW,292,2.5,2.5,50,0.00,,---,0.00,VWS V14.01,2013-02-20 23:07:00,
2013-02-20 18:12:00,23.5,7.7,28.76,SE,135,1.6,3.1,50,0.00,,---,0.00,VWS V14.01,2013-02-20 23:12:00,
2013-02-20 18:17:00,23.5,8.1,28.76,SW,225,1.6,1.6,51,0.00,,---,0.00,VWS V14.01,2013-02-20 23:17:00,
2013-02-20 18:22:00,23.4,8.4,28.76,NW,315,2.9,2.9,52,0.00,,---,0.00,VWS V14.01,2013-02-20 23:22:00,
2013-02-20 18:27:00,23.2,8.2,28.76,NNW,338,0.0,0.0,52,0.00,,---,0.00,VWS V14.01,2013-02-20 23:27:00,
2013-02-20 18:32:00,23.2,8.2,28.76,NW,315,2.0,2.0,52,0.00,,---,0.00,VWS V14.01,2013-02-20 23:32:00,
2013-02-20 18:37:00,23.2,8.2,28.76,NNW,338,5.4,5.4,52,0.00,,---,0.00,VWS V14.01,2013-02-20 23:37:00,
2013-02-20 18:42:00,23.0,8.4,28.76,NNW,338,1.1,2.7,53,0.00,,---,0.00,VWS V14.01,2013-02-20 23:42:00,
2013-02-20 18:47:00,23.0,8.4,28.76,WSW,248,1.1,3.1,53,0.00,,---,0.00,VWS V14.01,2013-02-20 23:47:00,
2013-02-20 18:52:00,23.0,8.9,28.76,SSW,202,3.6,3.6,54,0.00,,---,0.00,VWS V14.01,2013-02-20 23:52:00,
2013-02-20 18:57:00,22.8,8.7,28.76,SSW,202,1.6,1.6,54,0.00,,---,0.00,VWS V14.01,2013-02-20 23:57:00,
2013-02-20 19:02:00,22.8,8.7,28.76,NE,45,2.0,2.5,54,0.00,,---,0.00,VWS V14.01,2013-02-21 00:02:00,
2013-02-20 19:07:00,22.8,8.7,28.76,SSW,202,2.2,2.9,54,0.00,,---,0.00,VWS V14.01,2013-02-21 00:07:00,
2013-02-20 19:12:00,22.8,8.7,28.76,NW,315,0.9,2.9,54,0.00,,---,0.00,VWS V14.01,2013-02-21 00:12:00,
2013-02-20 19:17:00,22.6,8.5,28.76,NW,315,0.0,2.2,54,0.00,,---,0.00,VWS V14.01,2013-02-21 00:17:00,
2013-02-20 19:22:00,22.6,8.9,28.76,WNW,292,1.3,2.5,55,0.00,,---,0.00,VWS V14.01,2013-02-21 00:22:00,
2013-02-20 19:27:00,22.6,8.9,28.79,WSW,248,2.9,2.9,55,0.00,,---,0.00,VWS V14.01,2013-02-21 00:27:00,
2013-02-20 19:32:00,22.5,8.8,28.79,NW,315,1.6,1.6,55,0.00,,---,0.00,VWS V14.01,2013-02-21 00:32:00,
2013-02-20 19:37:00,22.5,8.8,28.79,South,180,0.0,2.5,55,0.00,,---,0.00,VWS V14.01,2013-02-21 00:37:00,
2013-02-20 19:42:00,22.5,8.8,28.79,NW,315,1.6,1.6,55,0.00,,---,0.00,VWS V14.01,2013-02-21 00:42:00,
2013-02-20 19:47:00,22.5,8.8,28.79,NW,315,0.0,0.0,55,0.00,,---,0.00,VWS V14.01,2013-02-21 00:47:00,
2013-02-20 19:52:00,22.5,8.8,28.79,WNW,292,0.0,1.3,55,0.00,,---,0.00,VWS V14.01,2013-02-21 00:52:00,
2013-02-20 19:57:00,22.5,9.1,28.79,SW,225,1.1,1.1,56,0.00,,---,0.00,VWS V14.01,2013-02-21 00:57:00,
2013-02-20 20:02:00,22.5,8.8,28.79,SW,225,0.0,0.0,55,0.00,,---,0.00,VWS V14.01,2013-02-21 01:02:00,
2013-02-20 20:07:00,22.5,9.1,28.79,WSW,248,1.6,1.6,56,0.00,,---,0.00,VWS V14.01,2013-02-21 01:07:00,
2013-02-20 20:12:00,22.3,9.0,28.79,SSW,202,0.0,1.3,56,0.00,,---,0.00,VWS V14.01,2013-02-21 01:12:00,
2013-02-20 20:17:00,22.3,9.0,28.79,WSW,248,1.3,1.3,56,0.00,,---,0.00,VWS V14.01,2013-02-21 01:17:00,
2013-02-20 20:22:00,22.3,9.4,28.79,SE,135,0.0,3.4,57,0.00,,---,0.00,VWS V14.01,2013-02-21 01:22:00,
2013-02-20 20:27:00,22.3,9.4,28.79,NNW,338,0.0,0.0,57,0.00,,---,0.00,VWS V14.01,2013-02-21 01:27:00,
2013-02-20 20:32:00,22.3,9.4,28.79,WSW,248,2.0,2.9,57,0.00,,---,0.00,VWS V14.01,2013-02-21 01:32:00,
2013-02-20 20:37:00,22.3,9.4,28.79,WNW,292,0.0,0.0,57,0.00,,---,0.00,VWS V14.01,2013-02-21 01:37:00,
2013-02-20 20:42:00,22.3,9.0,28.79,WSW,248,2.7,3.8,56,0.00,,---,0.00,VWS V14.01,2013-02-21 01:42:00,
2013-02-20 20:47:00,22.3,9.0,28.79,ESE,112,0.0,0.0,56,0.00,,---,0.00,VWS V14.01,2013-02-21 01:47:00,
2013-02-20 20:52:00,22.3,9.4,28.79,West,270,1.1,1.1,57,0.00,,---,0.00,VWS V14.01,2013-02-21 01:52:00,
2013-02-20 20:57:00,22.3,9.4,28.79,WSW,248,3.8,3.8,57,0.00,,---,0.00,VWS V14.01,2013-02-21 01:57:00,
2013-02-20 21:02:00,22.3,9.4,28.79,SW,225,1.3,1.3,57,0.00,,---,0.00,VWS V14.01,2013-02-21 02:02:00,
2013-02-20 21:07:00,22.5,9.5,28.79,NNW,338,2.9,2.9,57,0.00,,---,0.00,VWS V14.01,2013-02-21 02:07:00,
2013-02-20 21:12:00,22.5,9.5,28.79,NW,315,3.8,3.8,57,0.00,,---,0.00,VWS V14.01,2013-02-21 02:12:00,
2013-02-20 21:17:00,22.5,9.5,28.79,NNW,338,1.1,4.0,57,0.00,,---,0.00,VWS V14.01,2013-02-21 02:17:00,
2013-02-20 21:22:00,22.5,9.5,28.79,NW,315,2.5,2.5,57,0.00,,---,0.00,VWS V14.01,2013-02-21 02:22:00,
2013-02-20 21:27:00,22.5,9.5,28.79,WNW,292,1.6,3.6,57,0.00,,---,0.00,VWS V14.01,2013-02-21 02:27:00,
2013-02-20 21:32:00,22.5,9.5,28.79,WSW,248,1.6,4.9,57,0.00,,---,0.00,VWS V14.01,2013-02-21 02:32:00,
2013-02-20 21:37:00,22.5,9.5,28.79,SSW,202,3.1,3.1,57,0.00,,---,0.00,VWS V14.01,2013-02-21 02:37:00,
2013-02-20 21:42:00,22.5,9.5,28.79,WSW,248,4.3,4.3,57,0.00,,---,0.00,VWS V14.01,2013-02-21 02:42:00,
2013-02-20 21:47:00,22.5,9.9,28.79,SSE,158,2.5,2.7,58,0.00,,---,0.00,VWS V14.01,2013-02-21 02:47:00,
2013-02-20 21:52:00,22.5,9.5,28.79,North,0,4.0,4.0,57,0.00,,---,0.00,VWS V14.01,2013-02-21 02:52:00,
2013-02-20 21:57:00,22.5,9.5,28.79,WNW,292,2.7,2.9,57,0.00,,---,0.00,VWS V14.01,2013-02-21 02:57:00,
2013-02-20 22:02:00,22.5,9.9,28.79,NNE,22,2.7,6.5,58,0.00,,---,0.00,VWS V14.01,2013-02-21 03:02:00,
2013-02-20 22:07:00,22.5,9.9,28.79,SSW,202,0.0,2.7,58,0.00,,---,0.00,VWS V14.01,2013-02-21 03:07:00,
2013-02-20 22:12:00,22.5,9.9,28.79,SSW,202,2.9,2.9,58,0.00,,---,0.00,VWS V14.01,2013-02-21 03:12:00,
2013-02-20 22:17:00,22.5,9.9,28.79,SSW,202,2.0,2.0,58,0.00,,---,0.00,VWS V14.01,2013-02-21 03:17:00,
2013-02-20 22:22:00,22.5,9.9,28.79,NW,315,2.9,2.9,58,0.00,,---,0.00,VWS V14.01,2013-02-21 03:22:00,
2013-02-20 22:27:00,22.3,10.1,28.79,WSW,248,1.1,1.1,59,0.00,,---,0.00,VWS V14.01,2013-02-21 03:27:00,
2013-02-20 22:32:00,22.3,10.1,28.79,West,270,0.0,1.3,59,0.00,,---,0.00,VWS V14.01,2013-02-21 03:32:00,
2013-02-20 22:37:00,22.3,10.1,28.79,West,270,0.0,0.0,59,0.00,,---,0.00,VWS V14.01,2013-02-21 03:37:00,
2013-02-20 22:42:00,22.3,10.1,28.82,WNW,292,1.1,3.6,59,0.00,,---,0.00,VWS V14.01,2013-02-21 03:42:00,
2013-02-20 22:47:00,21.9,9.4,28.82,SW,225,3.4,3.6,58,0.00,,---,0.00,VWS V14.01,2013-02-21 03:47:00,
2013-02-20 22:52:00,21.7,9.6,28.82,SSW,202,2.0,2.0,59,0.00,,---,0.00,VWS V14.01,2013-02-21 03:52:00,
2013-02-20 22:57:00,21.7,9.6,28.82,West,270,1.1,2.0,59,0.00,,---,0.00,VWS V14.01,2013-02-21 03:57:00,
2013-02-20 23:02:00,21.6,9.5,28.82,WNW,292,1.3,1.3,59,0.00,,---,0.00,VWS V14.01,2013-02-21 04:02:00,
2013-02-20 23:07:00,21.2,8.7,28.82,SSW,202,1.6,1.6,58,0.00,,---,0.00,VWS V14.01,2013-02-21 04:07:00,
2013-02-20 23:12:00,20.8,7.6,28.85,SSW,202,2.5,2.5,56,0.00,,---,0.00,VWS V14.01,2013-02-21 04:12:00,
2013-02-20 23:17:00,20.7,7.5,28.85,SSE,158,2.0,2.0,56,0.00,,---,0.00,VWS V14.01,2013-02-21 04:17:00,
2013-02-20 23:22:00,20.5,7.3,28.85,WNW,292,3.1,4.7,56,0.00,,---,0.00,VWS V14.01,2013-02-21 04:22:00,
2013-02-20 23:27:00,20.3,7.1,28.85,WSW,248,1.1,2.5,56,0.00,,---,0.00,VWS V14.01,2013-02-21 04:27:00,
2013-02-20 23:32:00,20.1,6.9,28.85,WNW,292,2.7,2.7,56,0.00,,---,0.00,VWS V14.01,2013-02-21 04:32:00,
2013-02-20 23:37:00,19.9,6.8,28.85,East,90,3.1,3.4,56,0.00,,---,0.00,VWS V14.01,2013-02-21 04:37:00,
2013-02-20 23:42:00,19.8,6.2,28.85,SE,135,3.6,3.6,55,0.00,,---,0.00,VWS V14.01,2013-02-21 04:42:00,
2013-02-20 23:47:00,19.4,5.9,28.85,SW,225,4.0,4.0,55,0.00,,---,0.00,VWS V14.01,2013-02-21 04:47:00,
2013-02-20 23:52:00,19.4,6.3,28.85,NW,315,2.7,2.7,56,0.00,,---,0.00,VWS V14.01,2013-02-21 04:52:00,
2013-02-20 23:57:00,19.2,6.1,28.85,WSW,248,4.5,4.5,56,0.00,,---,0.00,VWS V14.01,2013-02-21 04:57:00,